GFSMA_prec_precacc12_150.txt.gz
Total_Precipitation_Accumulation
0.00 0.00 0.00 0.01 0.04 0.15 0.26 0.32 0.40 0.55 0.73 0.75 0.82 0.68 0.73 0.59 0.58 0.70 0.62 0.62 0.50 0.31 0.41 0.49 0.27 0.20 0.18 0.15 0.15 0.15 0.11 0.10 0.08 0.01 0.00 0.00 0.00 0.00 0.00 0.00 0.00 0.00 0.00
0.00 0.00 0.00 0.00 0.00 0.03 0.09 0.16 0.30 0.51 0.68 1.02 0.82 0.67 0.73 0.47 0.47 0.84 1.53 1.38 0.78 0.53 0.38 0.53 0.55 0.35 0.17 0.10 0.06 0.07 0.11 0.09 0.07 0.02 0.00 0.00 0.00 0.00 0.00 0.00 0.00 0.00 0.00
0.00 0.00 0.00 0.00 0.00 0.00 0.00 0.02 0.09 0.11 0.16 0.25 0.50 0.96 1.28 1.17 0.66 0.42 0.52 0.64 0.64 0.53 0.41 0.37 0.31 0.36 0.24 0.13 0.09 0.06 0.08 0.11 0.07 0.07 0.04 0.00 0.00 0.00 0.00 0.00 0.00 0.00 0.00
0.00 0.00 0.00 0.00 0.00 0.00 0.00 0.00 0.00 0.00 0.04 0.05 0.06 0.21 0.63 0.83 0.80 0.89 0.67 0.46 0.37 0.57 0.88 0.39 0.18 0.17 0.27 0.24 0.16 0.11 0.10 0.09 0.10 0.12 0.12 0.02 0.00 0.00 0.00 0.00 0.00 0.00 0.00
0.00 0.00 0.00 0.00 0.00 0.00 0.00 0.00 0.00 0.00 0.00 0.00 0.00 0.02 0.03 0.21 0.24 0.18 0.22 0.22 0.14 0.08 0.20 0.24 0.12 0.04 0.13 0.19 0.17 0.15 0.08 0.06 0.07 0.07 0.08 0.04 0.00 0.00 0.00 0.00 0.00 0.00 0.00
0.00 0.00 0.00 0.00 0.00 0.00 0.00 0.00 0.00 0.00 0.00 0.00 0.00 0.00 0.00 0.00 0.06 0.05 0.04 0.05 0.07 0.04 0.01 0.08 0.15 0.12 0.05 0.08 0.12 0.16 0.10 0.05 0.04 0.03 0.02 0.02 0.01 0.00 0.00 0.00 0.00 0.00 0.00
0.00 0.00 0.00 0.00 0.00 0.00 0.00 0.00 0.00 0.00 0.00 0.00 0.00 0.00 0.00 0.00 0.01 0.02 0.02 0.02 0.03 0.04 0.02 0.04 0.13 0.17 0.11 0.08 0.08 0.07 0.12 0.07 0.02 0.02 0.03 0.01 0.00 0.00 0.00 0.00 0.00 0.00 0.00
0.00 0.00 0.00 0.00 0.00 0.00 0.00 0.00 0.00 0.00 0.00 0.00 0.00 0.00 0.00 0.00 0.00 0.01 0.02 0.04 0.04 0.05 0.04 0.01 0.09 0.09 0.07 0.12 0.12 0.09 0.20 0.20 0.08 0.04 0.04 0.01 0.00 0.00 0.00 0.00 0.00 0.00 0.00
0.00 0.00 0.00 0.00 0.00 0.00 0.00 0.00 0.00 0.00 0.00 0.00 0.00 0.01 0.01 0.01 0.01 0.00 0.00 0.01 0.02 0.03 0.04 0.03 0.02 0.04 0.04 0.07 0.22 0.23 0.16 0.32 0.32 0.22 0.09 0.16 0.12 0.02 0.00 0.00 0.00 0.00 0.00
0.00 0.00 0.00 0.00 0.00 0.00 0.00 0.00 0.00 0.00 0.01 0.00 0.00 0.00 0.01 0.02 0.06 0.05 0.03 0.04 0.03 0.02 0.04 0.05 0.04 0.02 0.03 0.07 0.12 0.19 0.13 0.13 0.22 0.25 0.33 0.36 0.25 0.09 0.02 0.02 0.02 0.01 0.01
0.00 0.00 0.00 0.00 0.00 0.00 0.01 0.01 0.01 0.01 0.01 0.01 0.01 0.00 0.01 0.01 0.02 0.07 0.04 0.05 0.13 0.13 0.09 0.06 0.09 0.11 0.13 0.21 0.21 0.10 0.10 0.14 0.19 0.22 0.24 0.22 0.17 0.09 0.08 0.11 0.12 0.10 0.08
0.00 0.00 0.01 0.00 0.01 0.01 0.01 0.02 0.02 0.02 0.02 0.02 0.01 0.01 0.01 0.02 0.02 0.05 0.06 0.02 0.05 0.10 0.17 0.26 0.27 0.28 0.25 0.33 0.33 0.30 0.22 0.18 0.22 0.20 0.19 0.30 0.33 0.25 0.21 0.18 0.10 0.07 0.08
0.01 0.02 0.02 0.02 0.02 0.02 0.02 0.02 0.03 0.03 0.03 0.03 0.02 0.01 0.01 0.01 0.01 0.02 0.05 0.04 0.04 0.03 0.06 0.07 0.15 0.24 0.30 0.42 0.41 0.46 0.39 0.29 0.34 0.42 0.35 0.38 0.38 0.31 0.30 0.30 0.25 0.07 0.03
0.04 0.04 0.04 0.02 0.03 0.04 0.03 0.03 0.04 0.04 0.05 0.05 0.04 0.04 0.03 0.02 0.01 0.02 0.04 0.07 0.05 0.04 0.05 0.04 0.04 0.08 0.11 0.27 0.34 0.59 0.67 0.60 0.53 0.54 0.51 0.43 0.38 0.40 0.36 0.31 0.33 0.30 0.17
0.06 0.07 0.05 0.04 0.04 0.05 0.05 0.06 0.06 0.06 0.08 0.10 0.09 0.08 0.08 0.06 0.04 0.02 0.02 0.05 0.08 0.08 0.04 0.03 0.04 0.05 0.09 0.16 0.25 0.39 0.47 0.54 0.59 0.60 0.68 0.68 0.60 0.57 0.50 0.45 0.40 0.45 0.45
0.11 0.10 0.07 0.06 0.07 0.08 0.08 0.08 0.09 0.11 0.13 0.14 0.13 0.10 0.09 0.08 0.07 0.04 0.05 0.07 0.12 0.13 0.08 0.04 0.06 0.07 0.09 0.12 0.26 0.34 0.53 0.61 0.46 0.52 0.58 0.73 0.93 0.86 0.62 0.55 0.53 0.51 0.54
0.11 0.09 0.08 0.09 0.13 0.15 0.16 0.15 0.14 0.15 0.14 0.12 0.11 0.10 0.09 0.07 0.07 0.06 0.06 0.07 0.16 0.28 0.26 0.14 0.13 0.16 0.15 0.21 0.24 0.24 0.32 0.43 0.60 0.47 0.38 0.46 0.60 0.80 1.05 1.12 0.91 0.66 0.53
0.09 0.10 0.12 0.10 0.10 0.12 0.14 0.16 0.19 0.19 0.18 0.16 0.12 0.10 0.09 0.09 0.08 0.07 0.04 0.03 0.06 0.18 0.22 0.22 0.18 0.16 0.17 0.24 0.27 0.41 0.45 0.32 0.21 0.30 0.34 0.31 0.41 0.61 0.77 1.03 1.38 1.27 0.91
0.06 0.06 0.09 0.13 0.12 0.12 0.12 0.13 0.16 0.17 0.17 0.16 0.16 0.15 0.15 0.09 0.08 0.07 0.06 0.05 0.04 0.06 0.14 0.22 0.15 0.21 0.24 0.23 0.19 0.26 0.36 0.45 0.45 0.47 0.41 0.35 0.29 0.31 0.47 0.69 0.85 0.87 0.79
0.00 0.00 0.02 0.06 0.10 0.11 0.13 0.14 0.12 0.14 0.19 0.20 0.23 0.20 0.24 0.17 0.16 0.11 0.08 0.06 0.04 0.03 0.02 0.07 0.24 0.44 0.48 0.49 0.51 0.40 0.30 0.31 0.39 0.42 0.48 0.39 0.29 0.29 0.36 0.42 0.43 0.41 0.43
0.00 0.00 0.00 0.00 0.00 0.01 0.03 0.04 0.07 0.09 0.11 0.13 0.16 0.11 0.13 0.24 0.24 0.23 0.20 0.14 0.06 0.04 0.03 0.04 0.10 0.19 0.30 0.40 0.41 0.53 0.48 0.53 0.43 0.35 0.42 0.54 0.49 0.47 0.44 0.39 0.33 0.31 0.29
0.00 0.00 0.00 0.00 0.00 0.01 0.00 0.00 0.00 0.00 0.02 0.03 0.02 0.01 0.01 0.04 0.14 0.15 0.20 0.17 0.09 0.06 0.07 0.06 0.04 0.05 0.09 0.12 0.13 0.18 0.32 0.46 0.52 0.45 0.54 0.68 0.71 0.74 0.70 0.62 0.59 0.44 0.39
0.00 0.00 0.00 0.00 0.00 0.00 0.00 0.00 0.00 0.00 0.00 0.00 0.00 0.00 0.00 0.00 0.00 0.00 0.01 0.01 0.01 0.01 0.02 0.03 0.04 0.04 0.03 0.05 0.05 0.06 0.05 0.09 0.17 0.13 0.19 0.33 0.37 0.52 0.57 0.56 0.54 0.53 0.56
0.00 0.00 0.00 0.00 0.00 0.00 0.00 0.00 0.00 0.00 0.00 0.00 0.00 0.00 0.00 0.00 0.00 0.00 0.00 0.00 0.01 0.01 0.00 0.01 0.01 0.02 0.02 0.02 0.01 0.02 0.03 0.03 0.02 0.01 0.01 0.05 0.08 0.11 0.18 0.23 0.26 0.26 0.33
0.00 0.00 0.00 0.00 0.00 0.00 0.00 0.00 0.00 0.00 0.00 0.00 0.00 0.00 0.00 0.00 0.00 0.00 0.00 0.00 0.00 0.00 0.00 0.00 0.00 0.00 0.00 0.00 0.00 0.00 0.00 0.00 0.01 0.00 0.00 0.01 0.01 0.01 0.05 0.06 0.07 0.07 0.06
0.00 0.00 0.00 0.00 0.00 0.00 0.00 0.00 0.00 0.00 0.00 0.00 0.00 0.00 0.00 0.00 0.00 0.00 0.00 0.00 0.00 0.00 0.00 0.00 0.00 0.00 0.00 0.00 0.00 0.00 0.01 0.00 0.00 0.01 0.00 0.01 0.01 0.01 0.01 0.00 0.01 0.03 0.04

GFSMA_prec_precacc12_153.txt.gz
Total_Precipitation_Accumulation
0.00 0.00 0.00 0.00 0.00 0.00 0.02 0.05 0.14 0.30 0.52 0.57 0.74 0.65 0.72 0.57 0.59 0.75 0.70 0.74 0.57 0.35 0.42 0.51 0.48 0.41 0.29 0.29 0.28 0.25 0.23 0.17 0.17 0.10 0.02 0.00 0.00 0.00 0.00 0.00 0.00 0.00 0.00
0.00 0.00 0.00 0.00 0.00 0.00 0.00 0.00 0.01 0.25 0.46 0.80 0.64 0.51 0.57 0.40 0.45 0.85 1.54 1.39 0.82 0.58 0.41 0.56 0.88 0.76 0.54 0.49 0.52 0.17 0.13 0.15 0.15 0.11 0.08 0.02 0.00 0.00 0.00 0.00 0.00 0.00 0.00
0.00 0.00 0.00 0.00 0.00 0.00 0.00 0.00 0.00 0.01 0.01 0.07 0.26 0.51 0.81 0.82 0.44 0.34 0.50 0.64 0.63 0.52 0.42 0.38 0.32 0.52 0.68 0.50 0.53 0.21 0.08 0.09 0.08 0.08 0.06 0.01 0.00 0.00 0.00 0.00 0.00 0.00 0.00
0.00 0.00 0.00 0.00 0.00 0.00 0.00 0.00 0.00 0.00 0.00 0.00 0.00 0.01 0.05 0.14 0.22 0.50 0.55 0.39 0.36 0.57 0.86 0.38 0.18 0.16 0.28 0.31 0.26 0.21 0.13 0.16 0.15 0.18 0.17 0.04 0.00 0.00 0.00 0.00 0.00 0.00 0.00
0.00 0.00 0.00 0.00 0.00 0.00 0.00 0.00 0.00 0.00 0.00 0.00 0.00 0.00 0.00 0.00 0.00 0.03 0.12 0.13 0.09 0.06 0.20 0.22 0.11 0.04 0.13 0.23 0.24 0.23 0.19 0.15 0.13 0.12 0.17 0.09 0.01 0.00 0.00 0.00 0.00 0.00 0.00
0.00 0.00 0.00 0.00 0.00 0.00 0.00 0.00 0.00 0.00 0.00 0.00 0.00 0.00 0.00 0.00 0.00 0.00 0.00 0.00 0.01 0.01 0.01 0.07 0.13 0.13 0.05 0.09 0.16 0.24 0.22 0.17 0.15 0.13 0.09 0.08 0.03 0.00 0.00 0.00 0.00 0.00 0.00
0.00 0.00 0.00 0.00 0.00 0.00 0.00 0.00 0.00 0.00 0.00 0.00 0.00 0.00 0.00 0.00 0.00 0.00 0.00 0.00 0.00 0.00 0.01 0.04 0.13 0.18 0.13 0.11 0.09 0.07 0.18 0.17 0.11 0.12 0.15 0.12 0.07 0.02 0.00 0.00 0.00 0.00 0.00
0.00 0.00 0.00 0.00 0.00 0.00 0.00 0.00 0.00 0.00 0.00 0.00 0.00 0.00 0.00 0.00 0.00 0.00 0.00 0.00 0.00 0.01 0.02 0.01 0.09 0.09 0.07 0.16 0.16 0.12 0.23 0.28 0.23 0.12 0.16 0.19 0.15 0.06 0.01 0.00 0.00 0.00 0.00
0.00 0.00 0.00 0.00 0.00 0.00 0.00 0.00 0.00 0.01 0.01 0.00 0.00 0.02 0.02 0.01 0.01 0.00 0.00 0.00 0.00 0.01 0.02 0.02 0.01 0.04 0.04 0.07 0.21 0.23 0.18 0.34 0.47 0.39 0.24 0.38 0.33 0.15 0.06 0.01 0.00 0.00 0.00
0.00 0.00 0.00 0.00 0.00 0.00 0.01 0.00 0.01 0.01 0.01 0.01 0.00 0.00 0.00 0.02 0.04 0.04 0.03 0.04 0.01 0.00 0.01 0.02 0.03 0.02 0.03 0.07 0.11 0.16 0.11 0.13 0.29 0.37 0.55 0.66 0.58 0.37 0.22 0.12 0.04 0.01 0.01
0.00 0.00 0.00 0.00 0.00 0.00 0.01 0.01 0.01 0.01 0.02 0.02 0.02 0.01 0.01 0.00 0.01 0.05 0.02 0.02 0.08 0.10 0.07 0.04 0.08 0.11 0.14 0.23 0.22 0.09 0.11 0.16 0.26 0.32 0.33 0.37 0.49 0.52 0.37 0.24 0.18 0.06 0.03
0.00 0.00 0.00 0.00 0.00 0.01 0.02 0.02 0.02 0.03 0.03 0.03 0.03 0.02 0.02 0.02 0.01 0.05 0.06 0.01 0.01 0.04 0.12 0.22 0.22 0.22 0.21 0.30 0.33 0.27 0.21 0.19 0.22 0.24 0.26 0.41 0.51 0.46 0.52 0.46 0.24 0.16 0.15
0.01 0.01 0.01 0.01 0.01 0.02 0.02 0.03 0.03 0.04 0.04 0.05 0.04 0.03 0.02 0.02 0.01 0.02 0.05 0.02 0.01 0.01 0.01 0.03 0.11 0.20 0.24 0.36 0.37 0.38 0.36 0.26 0.30 0.35 0.32 0.39 0.44 0.52 0.59 0.52 0.47 0.26 0.20
0.03 0.03 0.03 0.01 0.02 0.04 0.03 0.03 0.04 0.04 0.06 0.08 0.07 0.06 0.05 0.04 0.04 0.03 0.03 0.05 0.02 0.00 0.01 0.02 0.02 0.06 0.08 0.21 0.28 0.48 0.57 0.51 0.44 0.44 0.45 0.43 0.40 0.45 0.48 0.56 0.62 0.53 0.38
0.05 0.06 0.04 0.03 0.03 0.04 0.03 0.04 0.05 0.06 0.08 0.12 0.12 0.10 0.09 0.10 0.09 0.07 0.03 0.02 0.03 0.02 0.00 0.02 0.03 0.04 0.06 0.09 0.15 0.26 0.37 0.41 0.40 0.44 0.57 0.62 0.57 0.54 0.53 0.52 0.53 0.62 0.61
0.10 0.09 0.05 0.03 0.03 0.04 0.04 0.05 0.06 0.09 0.11 0.13 0.12 0.10 0.09 0.09 0.10 0.12 0.08 0.06 0.06 0.06 0.02 0.01 0.03 0.05 0.07 0.09 0.16 0.15 0.21 0.27 0.30 0.39 0.47 0.68 0.91 0.87 0.65 0.60 0.62 0.63 0.67
0.09 0.06 0.05 0.05 0.07 0.07 0.08 0.09 0.10 0.11 0.10 0.10 0.10 0.11 0.11 0.09 0.09 0.11 0.10 0.08 0.08 0.09 0.07 0.03 0.07 0.13 0.14 0.19 0.23 0.16 0.18 0.21 0.25 0.33 0.33 0.45 0.60 0.80 1.07 1.16 0.95 0.73 0.63
0.04 0.05 0.07 0.06 0.06 0.07 0.09 0.09 0.12 0.14 0.14 0.12 0.11 0.11 0.11 0.11 0.12 0.14 0.12 0.08 0.07 0.08 0.08 0.10 0.06 0.11 0.16 0.19 0.21 0.37 0.42 0.29 0.18 0.24 0.30 0.31 0.40 0.61 0.79 1.09 1.52 1.43 1.13
0.01 0.02 0.03 0.05 0.06 0.07 0.07 0.07 0.10 0.11 0.12 0.13 0.15 0.16 0.18 0.12 0.11 0.13 0.16 0.15 0.09 0.05 0.07 0.11 0.08 0.05 0.06 0.09 0.11 0.20 0.33 0.41 0.41 0.43 0.35 0.30 0.25 0.27 0.46 0.68 0.91 1.04 0.99
0.00 0.00 0.00 0.01 0.01 0.02 0.04 0.06 0.07 0.10 0.14 0.16 0.20 0.19 0.24 0.20 0.21 0.16 0.12 0.13 0.13 0.08 0.05 0.06 0.05 0.06 0.04 0.07 0.15 0.13 0.13 0.16 0.28 0.33 0.38 0.29 0.21 0.24 0.32 0.37 0.39 0.38 0.42
0.00 0.00 0.00 0.00 0.00 0.00 0.00 0.00 0.01 0.03 0.06 0.08 0.10 0.07 0.11 0.21 0.22 0.26 0.23 0.19 0.09 0.06 0.04 0.04 0.03 0.02 0.04 0.05 0.08 0.14 0.17 0.18 0.20 0.21 0.30 0.40 0.40 0.36 0.32 0.31 0.30 0.29 0.25
0.00 0.00 0.00 0.00 0.00 0.00 0.00 0.00 0.00 0.00 0.00 0.00 0.00 0.00 0.00 0.02 0.07 0.12 0.19 0.18 0.10 0.09 0.10 0.07 0.05 0.03 0.04 0.06 0.10 0.15 0.21 0.32 0.41 0.38 0.43 0.45 0.42 0.46 0.50 0.45 0.45 0.38 0.36
0.00 0.00 0.00 0.00 0.00 0.00 0.00 0.00 0.00 0.00 0.00 0.00 0.00 0.00 0.00 0.00 0.00 0.00 0.00 0.02 0.01 0.01 0.02 0.03 0.04 0.04 0.02 0.02 0.03 0.03 0.04 0.06 0.09 0.07 0.14 0.27 0.29 0.38 0.46 0.45 0.43 0.44 0.46
0.00 0.00 0.00 0.00 0.00 0.00 0.00 0.00 0.00 0.00 0.00 0.00 0.00 0.00 0.00 0.00 0.00 0.00 0.00 0.00 0.00 0.01 0.00 0.00 0.01 0.01 0.00 0.00 0.00 0.00 0.00 0.01 0.01 0.00 0.01 0.03 0.05 0.09 0.17 0.21 0.21 0.23 0.28
0.00 0.00 0.00 0.00 0.00 0.00 0.00 0.00 0.00 0.00 0.00 0.00 0.00 0.00 0.00 0.00 0.00 0.00 0.00 0.00 0.00 0.00 0.00 0.00 0.00 0.00 0.00 0.00 0.00 0.00 0.00 0.00 0.00 0.00 0.00 0.01 0.00 0.00 0.02 0.03 0.03 0.02 0.03
0.00 0.00 0.00 0.00 0.00 0.00 0.00 0.00 0.00 0.00 0.00 0.00 0.00 0.00 0.00 0.00 0.00 0.00 0.00 0.00 0.00 0.00 0.00 0.00 0.00 0.00 0.00 0.00 0.00 0.00 0.01 0.00 0.00 0.00 0.00 0.00 0.00 0.00 0.01 0.00 0.00 0.00 0.00

GFSMA_prec_precacc12_156.txt.gz
Total_Precipitation_Accumulation
0.00 0.00 0.00 0.00 0.00 0.00 0.00 0.00 0.01 0.01 0.11 0.17 0.31 0.49 0.51 0.38 0.51 0.74 0.57 0.54 0.44 0.31 0.40 0.52 0.48 0.45 0.32 0.30 0.30 0.31 0.34 0.28 0.30 0.30 0.19 0.08 0.02 0.00 0.00 0.00 0.00 0.00 0.00
0.00 0.00 0.00 0.00 0.00 0.00 0.00 0.00 0.00 0.00 0.00 0.00 0.01 0.16 0.31 0.20 0.19 0.61 1.44 1.24 0.70 0.57 0.42 0.55 0.86 0.76 0.58 0.54 0.58 0.51 0.33 0.26 0.26 0.24 0.23 0.14 0.08 0.01 0.00 0.00 0.00 0.00 0.00
0.00 0.00 0.00 0.00 0.00 0.00 0.00 0.00 0.00 0.00 0.00 0.00 0.00 0.00 0.03 0.14 0.10 0.16 0.37 0.50 0.38 0.32 0.34 0.38 0.30 0.50 0.70 0.55 0.61 0.49 0.44 0.23 0.19 0.18 0.17 0.08 0.04 0.03 0.00 0.00 0.00 0.00 0.00
0.00 0.00 0.00 0.00 0.00 0.00 0.00 0.00 0.00 0.00 0.00 0.00 0.00 0.00 0.00 0.00 0.01 0.08 0.08 0.12 0.15 0.07 0.30 0.29 0.17 0.15 0.23 0.28 0.27 0.32 0.18 0.19 0.24 0.29 0.35 0.22 0.11 0.03 0.00 0.00 0.00 0.00 0.00
0.00 0.00 0.00 0.00 0.00 0.00 0.00 0.00 0.00 0.00 0.00 0.00 0.00 0.00 0.00 0.00 0.00 0.00 0.00 0.02 0.04 0.03 0.08 0.13 0.05 0.03 0.11 0.16 0.23 0.25 0.22 0.19 0.19 0.23 0.30 0.28 0.21 0.10 0.02 0.00 0.00 0.00 0.00
0.00 0.00 0.00 0.00 0.00 0.00 0.00 0.00 0.00 0.00 0.00 0.00 0.00 0.00 0.00 0.00 0.00 0.00 0.00 0.00 0.00 0.00 0.01 0.04 0.08 0.10 0.05 0.08 0.12 0.24 0.27 0.25 0.25 0.24 0.24 0.26 0.26 0.20 0.12 0.03 0.00 0.00 0.00
0.00 0.00 0.00 0.00 0.00 0.00 0.00 0.00 0.00 0.00 0.00 0.00 0.00 0.00 0.00 0.00 0.00 0.00 0.00 0.00 0.00 0.00 0.00 0.01 0.05 0.09 0.12 0.11 0.09 0.06 0.22 0.27 0.25 0.27 0.29 0.27 0.28 0.26 0.17 0.05 0.00 0.00 0.00
0.00 0.00 0.00 0.00 0.00 0.00 0.00 0.00 0.00 0.00 0.00 0.00 0.00 0.00 0.00 0.00 0.00 0.00 0.00 0.00 0.00 0.00 0.00 0.00 0.01 0.02 0.05 0.14 0.15 0.14 0.25 0.34 0.31 0.23 0.33 0.34 0.36 0.32 0.27 0.18 0.05 0.00 0.00
0.00 0.00 0.00 0.00 0.00 0.00 0.01 0.00 0.00 0.01 0.02 0.00 0.00 0.03 0.03 0.01 0.00 0.00 0.00 0.00 0.00 0.00 0.00 0.00 0.00 0.01 0.02 0.04 0.15 0.22 0.20 0.37 0.48 0.43 0.32 0.47 0.45 0.31 0.27 0.21 0.13 0.03 0.00
0.00 0.00 0.00 0.00 0.00 0.00 0.01 0.01 0.01 0.01 0.02 0.02 0.01 0.00 0.01 0.02 0.03 0.01 0.00 0.00 0.00 0.01 0.02 0.02 0.02 0.02 0.03 0.04 0.06 0.10 0.08 0.14 0.30 0.38 0.57 0.77 0.69 0.53 0.43 0.34 0.27 0.14 0.03
0.00 0.00 0.00 0.00 0.00 0.00 0.01 0.01 0.01 0.02 0.02 0.04 0.03 0.02 0.02 0.01 0.01 0.03 0.01 0.00 0.00 0.00 0.01 0.01 0.02 0.06 0.11 0.21 0.20 0.10 0.09 0.14 0.27 0.35 0.36 0.45 0.70 0.70 0.53 0.44 0.39 0.33 0.22
0.00 0.00 0.00 0.00 0.00 0.01 0.02 0.01 0.02 0.03 0.03 0.03 0.04 0.03 0.04 0.04 0.02 0.08 0.08 0.01 0.01 0.01 0.01 0.05 0.11 0.13 0.13 0.19 0.27 0.25 0.20 0.17 0.19 0.22 0.26 0.41 0.53 0.62 0.69 0.58 0.38 0.34 0.37
0.01 0.01 0.01 0.00 0.01 0.02 0.02 0.02 0.03 0.03 0.03 0.04 0.04 0.04 0.04 0.04 0.03 0.03 0.08 0.03 0.01 0.00 0.01 0.04 0.06 0.12 0.11 0.15 0.20 0.26 0.25 0.23 0.28 0.31 0.30 0.39 0.45 0.61 0.87 0.84 0.66 0.46 0.38
0.02 0.02 0.02 0.00 0.01 0.02 0.02 0.02 0.04 0.04 0.06 0.08 0.07 0.06 0.07 0.07 0.08 0.06 0.05 0.05 0.02 0.00 0.02 0.04 0.04 0.05 0.04 0.07 0.13 0.25 0.28 0.31 0.31 0.36 0.36 0.35 0.37 0.44 0.60 0.98 1.33 1.16 0.75
0.04 0.04 0.03 0.01 0.02 0.02 0.02 0.02 0.04 0.05 0.08 0.11 0.12 0.10 0.10 0.11 0.13 0.10 0.06 0.05 0.04 0.02 0.01 0.04 0.03 0.04 0.03 0.05 0.06 0.08 0.13 0.17 0.17 0.26 0.41 0.44 0.40 0.41 0.44 0.57 0.80 1.10 1.18
0.06 0.06 0.03 0.01 0.01 0.02 0.02 0.02 0.04 0.06 0.08 0.08 0.09 0.08 0.08 0.09 0.12 0.14 0.13 0.10 0.09 0.05 0.01 0.02 0.02 0.03 0.03 0.05 0.10 0.06 0.06 0.09 0.07 0.12 0.24 0.46 0.67 0.64 0.47 0.45 0.53 0.66 0.81
0.04 0.04 0.03 0.02 0.03 0.03 0.03 0.03 0.04 0.05 0.06 0.06 0.07 0.10 0.09 0.08 0.10 0.13 0.17 0.15 0.12 0.08 0.06 0.02 0.01 0.02 0.05 0.03 0.05 0.09 0.08 0.09 0.09 0.12 0.14 0.21 0.40 0.68 0.96 1.08 0.91 0.69 0.60
0.00 0.01 0.02 0.02 0.02 0.03 0.04 0.03 0.04 0.05 0.05 0.06 0.07 0.09 0.09 0.10 0.13 0.18 0.19 0.15 0.10 0.08 0.09 0.11 0.05 0.04 0.04 0.04 0.02 0.18 0.36 0.24 0.13 0.14 0.11 0.10 0.13 0.34 0.68 1.02 1.47 1.41 1.12
0.00 0.00 0.00 0.00 0.00 0.01 0.02 0.02 0.03 0.04 0.05 0.07 0.09 0.13 0.17 0.11 0.11 0.17 0.25 0.27 0.16 0.08 0.11 0.15 0.10 0.06 0.05 0.03 0.02 0.05 0.14 0.26 0.29 0.32 0.23 0.12 0.08 0.09 0.22 0.42 0.67 0.89 0.93
0.00 0.00 0.00 0.00 0.00 0.00 0.00 0.00 0.00 0.02 0.04 0.07 0.10 0.10 0.16 0.17 0.20 0.18 0.17 0.25 0.25 0.18 0.14 0.14 0.14 0.11 0.08 0.04 0.03 0.02 0.03 0.05 0.14 0.20 0.25 0.17 0.10 0.06 0.08 0.10 0.15 0.24 0.36
0.00 0.00 0.00 0.00 0.00 0.00 0.00 0.00 0.00 0.00 0.00 0.00 0.01 0.01 0.04 0.12 0.17 0.22 0.22 0.22 0.17 0.16 0.15 0.15 0.14 0.12 0.12 0.08 0.05 0.04 0.04 0.04 0.03 0.07 0.14 0.15 0.10 0.07 0.08 0.12 0.12 0.13 0.16
0.00 0.00 0.00 0.00 0.00 0.00 0.00 0.00 0.00 0.00 0.00 0.00 0.00 0.00 0.00 0.00 0.02 0.04 0.12 0.15 0.12 0.12 0.13 0.09 0.07 0.07 0.10 0.10 0.09 0.04 0.05 0.08 0.07 0.06 0.10 0.12 0.15 0.17 0.18 0.20 0.23 0.23 0.23
0.00 0.00 0.00 0.00 0.00 0.00 0.00 0.00 0.00 0.00 0.00 0.00 0.00 0.00 0.00 0.00 0.00 0.00 0.00 0.01 0.01 0.01 0.02 0.04 0.04 0.04 0.02 0.02 0.02 0.01 0.01 0.01 0.02 0.01 0.05 0.08 0.08 0.11 0.14 0.16 0.16 0.19 0.22
0.00 0.00 0.00 0.00 0.00 0.00 0.00 0.00 0.00 0.00 0.00 0.00 0.00 0.00 0.00 0.00 0.00 0.00 0.00 0.00 0.00 0.01 0.00 0.00 0.01 0.01 0.00 0.00 0.00 0.00 0.00 0.01 0.00 0.00 0.00 0.01 0.00 0.02 0.05 0.07 0.07 0.07 0.11
0.00 0.00 0.00 0.00 0.00 0.00 0.00 0.00 0.00 0.00 0.00 0.00 0.00 0.00 0.00 0.00 0.00 0.00 0.00 0.00 0.00 0.00 0.00 0.00 0.00 0.00 0.00 0.00 0.00 0.00 0.00 0.00 0.00 0.00 0.00 0.00 0.00 0.00 0.01 0.01 0.02 0.02 0.02
0.00 0.00 0.00 0.00 0.00 0.00 0.00 0.00 0.00 0.00 0.00 0.00 0.00 0.00 0.00 0.00 0.00 0.00 0.00 0.00 0.00 0.00 0.00 0.00 0.00 0.00 0.00 0.00 0.00 0.00 0.00 0.00 0.00 0.00 0.00 0.00 0.00 0.00 0.00 0.00 0.00 0.00 0.00

GFSMA_prec_precacc12_159.txt.gz
Total_Precipitation_Accumulation
0.00 0.00 0.00 0.00 0.00 0.00 0.00 0.00 0.00 0.00 0.00 0.00 0.01 0.02 0.03 0.06 0.19 0.26 0.25 0.34 0.33 0.27 0.32 0.44 0.41 0.41 0.30 0.30 0.30 0.31 0.34 0.28 0.32 0.32 0.25 0.17 0.18 0.14 0.07 0.00 0.00 0.00 0.00
0.00 0.00 0.00 0.00 0.00 0.00 0.00 0.00 0.00 0.00 0.00 0.00 0.00 0.00 0.00 0.00 0.03 0.05 0.08 0.27 0.40 0.47 0.39 0.50 0.78 0.69 0.55 0.56 0.63 0.53 0.33 0.26 0.27 0.25 0.25 0.21 0.21 0.17 0.10 0.04 0.00 0.00 0.00
0.00 0.00 0.00 0.00 0.00 0.00 0.00 0.00 0.00 0.00 0.00 0.00 0.00 0.00 0.00 0.00 0.00 0.01 0.02 0.08 0.13 0.11 0.14 0.15 0.18 0.42 0.64 0.55 0.66 0.59 0.45 0.22 0.18 0.17 0.18 0.14 0.15 0.15 0.11 0.07 0.01 0.00 0.00
0.00 0.00 0.00 0.00 0.00 0.00 0.00 0.00 0.00 0.00 0.00 0.00 0.00 0.00 0.00 0.00 0.00 0.01 0.02 0.02 0.03 0.01 0.03 0.02 0.01 0.02 0.14 0.24 0.27 0.36 0.25 0.21 0.24 0.28 0.37 0.28 0.22 0.21 0.19 0.12 0.05 0.00 0.00
0.00 0.00 0.00 0.00 0.00 0.00 0.00 0.00 0.00 0.00 0.00 0.00 0.00 0.00 0.00 0.00 0.00 0.00 0.00 0.00 0.01 0.01 0.02 0.03 0.02 0.01 0.04 0.09 0.20 0.24 0.25 0.21 0.19 0.24 0.31 0.32 0.31 0.28 0.24 0.18 0.10 0.02 0.00
0.00 0.00 0.00 0.00 0.00 0.00 0.00 0.00 0.00 0.00 0.00 0.00 0.00 0.00 0.00 0.00 0.00 0.00 0.00 0.00 0.00 0.00 0.00 0.01 0.04 0.04 0.01 0.04 0.09 0.24 0.27 0.26 0.25 0.25 0.26 0.30 0.34 0.34 0.32 0.28 0.17 0.07 0.00
0.00 0.00 0.00 0.00 0.00 0.00 0.00 0.00 0.00 0.00 0.00 0.00 0.00 0.00 0.00 0.00 0.00 0.00 0.00 0.00 0.00 0.00 0.00 0.00 0.01 0.04 0.06 0.08 0.09 0.05 0.22 0.28 0.28 0.31 0.33 0.36 0.38 0.34 0.31 0.28 0.22 0.19 0.03
0.00 0.00 0.00 0.00 0.00 0.00 0.00 0.00 0.00 0.00 0.00 0.00 0.01 0.00 0.00 0.00 0.00 0.00 0.00 0.00 0.00 0.00 0.00 0.00 0.00 0.01 0.02 0.07 0.10 0.11 0.20 0.36 0.37 0.31 0.48 0.63 0.47 0.40 0.33 0.27 0.22 0.19 0.10
0.00 0.00 0.00 0.00 0.00 0.00 0.00 0.00 0.00 0.02 0.02 0.00 0.01 0.04 0.04 0.02 0.00 0.00 0.00 0.00 0.00 0.00 0.01 0.00 0.01 0.01 0.01 0.04 0.13 0.15 0.16 0.25 0.39 0.45 0.43 0.72 0.91 0.50 0.36 0.29 0.24 0.20 0.15
0.00 0.00 0.00 0.00 0.00 0.00 0.01 0.01 0.01 0.01 0.03 0.02 0.01 0.01 0.03 0.04 0.05 0.02 0.00 0.00 0.00 0.01 0.03 0.03 0.04 0.03 0.04 0.06 0.07 0.09 0.06 0.12 0.19 0.27 0.52 0.79 0.78 0.70 0.57 0.46 0.38 0.28 0.21
0.00 0.00 0.00 0.00 0.00 0.00 0.01 0.01 0.01 0.02 0.02 0.04 0.03 0.03 0.02 0.02 0.02 0.05 0.01 0.00 0.02 0.03 0.06 0.03 0.04 0.05 0.08 0.10 0.09 0.07 0.06 0.10 0.23 0.29 0.27 0.40 0.70 0.73 0.60 0.50 0.49 0.45 0.37
0.00 0.00 0.00 0.00 0.00 0.00 0.01 0.01 0.02 0.02 0.03 0.03 0.03 0.03 0.05 0.07 0.03 0.10 0.09 0.01 0.04 0.06 0.07 0.12 0.09 0.09 0.08 0.11 0.11 0.11 0.09 0.11 0.14 0.21 0.22 0.31 0.47 0.62 0.69 0.63 0.49 0.50 0.56
0.00 0.01 0.01 0.00 0.00 0.01 0.01 0.02 0.02 0.02 0.03 0.04 0.04 0.04 0.04 0.05 0.05 0.05 0.09 0.04 0.02 0.03 0.08 0.16 0.15 0.14 0.10 0.06 0.10 0.11 0.11 0.13 0.16 0.19 0.21 0.26 0.32 0.52 0.78 0.82 0.71 0.62 0.64
0.01 0.01 0.01 0.00 0.01 0.01 0.01 0.01 0.02 0.02 0.04 0.07 0.07 0.06 0.06 0.07 0.08 0.07 0.06 0.07 0.04 0.02 0.13 0.16 0.16 0.14 0.07 0.05 0.10 0.08 0.07 0.10 0.10 0.14 0.17 0.22 0.25 0.28 0.46 0.90 1.35 1.29 0.99
0.01 0.02 0.02 0.00 0.00 0.01 0.00 0.01 0.01 0.02 0.05 0.08 0.10 0.09 0.09 0.10 0.13 0.11 0.07 0.06 0.09 0.05 0.08 0.19 0.14 0.18 0.11 0.08 0.08 0.03 0.03 0.04 0.03 0.04 0.08 0.16 0.19 0.22 0.27 0.38 0.61 0.98 1.25
0.00 0.01 0.01 0.00 0.00 0.00 0.00 0.00 0.01 0.02 0.03 0.03 0.05 0.07 0.07 0.09 0.11 0.14 0.14 0.11 0.14 0.09 0.07 0.12 0.08 0.09 0.12 0.10 0.15 0.09 0.05 0.03 0.04 0.03 0.02 0.07 0.22 0.27 0.23 0.26 0.32 0.45 0.66
0.00 0.00 0.00 0.00 0.00 0.00 0.00 0.01 0.01 0.02 0.02 0.02 0.03 0.07 0.07 0.07 0.09 0.13 0.18 0.16 0.16 0.13 0.09 0.04 0.02 0.04 0.10 0.16 0.13 0.11 0.10 0.07 0.03 0.03 0.02 0.01 0.04 0.21 0.37 0.50 0.60 0.50 0.46
0.00 0.00 0.00 0.00 0.00 0.00 0.01 0.01 0.01 0.01 0.01 0.02 0.03 0.06 0.07 0.08 0.11 0.17 0.20 0.19 0.17 0.14 0.12 0.10 0.04 0.04 0.08 0.11 0.12 0.06 0.05 0.08 0.06 0.06 0.04 0.04 0.07 0.10 0.19 0.46 0.93 0.93 0.84
0.00 0.00 0.00 0.00 0.00 0.00 0.00 0.00 0.00 0.01 0.02 0.02 0.04 0.07 0.12 0.09 0.09 0.16 0.27 0.32 0.20 0.10 0.18 0.21 0.15 0.09 0.08 0.07 0.07 0.06 0.04 0.03 0.02 0.04 0.08 0.10 0.06 0.05 0.07 0.18 0.47 0.68 0.67
0.00 0.00 0.00 0.00 0.00 0.00 0.00 0.00 0.00 0.00 0.00 0.00 0.02 0.03 0.06 0.11 0.16 0.15 0.19 0.30 0.30 0.22 0.21 0.23 0.22 0.15 0.12 0.07 0.05 0.02 0.02 0.01 0.01 0.01 0.06 0.09 0.07 0.04 0.04 0.03 0.05 0.08 0.16
0.00 0.00 0.00 0.00 0.00 0.00 0.00 0.00 0.00 0.00 0.00 0.00 0.00 0.00 0.01 0.04 0.07 0.13 0.15 0.21 0.22 0.23 0.24 0.24 0.25 0.22 0.20 0.15 0.12 0.08 0.06 0.04 0.01 0.01 0.01 0.02 0.02 0.01 0.01 0.01 0.01 0.02 0.03
0.00 0.00 0.00 0.00 0.00 0.00 0.00 0.00 0.00 0.00 0.00 0.00 0.00 0.00 0.00 0.00 0.00 0.01 0.03 0.05 0.09 0.15 0.18 0.16 0.16 0.18 0.22 0.18 0.16 0.08 0.10 0.13 0.10 0.04 0.03 0.02 0.02 0.02 0.01 0.01 0.02 0.02 0.02
0.00 0.00 0.00 0.00 0.00 0.00 0.00 0.00 0.00 0.00 0.00 0.00 0.00 0.00 0.00 0.00 0.00 0.00 0.00 0.00 0.00 0.00 0.01 0.03 0.05 0.06 0.05 0.05 0.03 0.02 0.03 0.04 0.03 0.01 0.02 0.02 0.01 0.01 0.01 0.01 0.00 0.00 0.01
0.00 0.00 0.00 0.00 0.00 0.00 0.00 0.00 0.00 0.00 0.00 0.00 0.00 0.00 0.00 0.00 0.00 0.00 0.00 0.00 0.00 0.01 0.00 0.00 0.01 0.01 0.00 0.00 0.00 0.00 0.00 0.00 0.00 0.00 0.00 0.00 0.00 0.00 0.01 0.00 0.00 0.00 0.00
0.00 0.00 0.00 0.00 0.00 0.00 0.00 0.00 0.00 0.00 0.00 0.00 0.00 0.00 0.00 0.00 0.00 0.00 0.00 0.00 0.00 0.00 0.00 0.00 0.00 0.00 0.00 0.00 0.00 0.00 0.00 0.00 0.00 0.00 0.00 0.00 0.00 0.00 0.00 0.00 0.00 0.00 0.00
0.00 0.00 0.00 0.00 0.00 0.00 0.00 0.00 0.00 0.00 0.00 0.00 0.00 0.00 0.00 0.00 0.00 0.00 0.00 0.00 0.00 0.00 0.00 0.00 0.00 0.00 0.00 0.00 0.00 0.00 0.00 0.00 0.00 0.00 0.00 0.00 0.00 0.00 0.00 0.00 0.00 0.00 0.00

GFSMA_prec_precacc12_162.txt.gz
Total_Precipitation_Accumulation
0.00 0.00 0.00 0.00 0.00 0.00 0.00 0.00 0.00 0.00 0.00 0.00 0.00 0.00 0.00 0.00 0.01 0.06 0.10 0.18 0.16 0.09 0.03 0.10 0.27 0.32 0.21 0.20 0.20 0.24 0.29 0.22 0.25 0.32 0.25 0.17 0.18 0.15 0.09 0.03 0.00 0.00 0.00
0.00 0.00 0.00 0.00 0.00 0.00 0.00 0.00 0.00 0.00 0.00 0.00 0.00 0.00 0.00 0.00 0.00 0.01 0.01 0.03 0.08 0.12 0.09 0.08 0.38 0.49 0.52 0.56 0.62 0.50 0.29 0.21 0.22 0.23 0.26 0.22 0.21 0.19 0.12 0.05 0.01 0.00 0.00
0.00 0.00 0.00 0.00 0.00 0.00 0.00 0.00 0.00 0.00 0.00 0.00 0.00 0.00 0.00 0.00 0.00 0.00 0.00 0.00 0.01 0.01 0.03 0.05 0.05 0.24 0.62 0.59 0.68 0.60 0.45 0.22 0.17 0.15 0.17 0.14 0.15 0.15 0.11 0.10 0.04 0.00 0.00
0.00 0.00 0.00 0.00 0.00 0.00 0.00 0.00 0.00 0.00 0.00 0.00 0.00 0.00 0.00 0.00 0.00 0.00 0.00 0.00 0.00 0.00 0.00 0.00 0.01 0.01 0.11 0.25 0.30 0.38 0.24 0.22 0.26 0.31 0.36 0.30 0.22 0.21 0.19 0.14 0.11 0.02 0.00
0.00 0.00 0.00 0.00 0.00 0.00 0.00 0.00 0.00 0.00 0.00 0.00 0.00 0.00 0.00 0.00 0.00 0.00 0.00 0.00 0.00 0.00 0.00 0.00 0.00 0.00 0.01 0.09 0.20 0.22 0.25 0.23 0.22 0.33 0.45 0.44 0.37 0.31 0.28 0.22 0.18 0.13 0.05
0.00 0.00 0.00 0.00 0.00 0.00 0.00 0.00 0.00 0.00 0.00 0.00 0.00 0.00 0.00 0.00 0.00 0.00 0.00 0.00 0.00 0.00 0.00 0.00 0.01 0.01 0.01 0.02 0.08 0.21 0.24 0.30 0.30 0.32 0.37 0.39 0.45 0.46 0.43 0.36 0.29 0.21 0.12
0.00 0.00 0.00 0.00 0.00 0.00 0.00 0.00 0.00 0.00 0.00 0.00 0.00 0.00 0.00 0.00 0.00 0.00 0.00 0.00 0.00 0.00 0.00 0.00 0.01 0.02 0.05 0.07 0.04 0.06 0.19 0.29 0.35 0.37 0.42 0.44 0.43 0.43 0.44 0.43 0.34 0.53 0.39
0.00 0.00 0.00 0.00 0.00 0.00 0.00 0.00 0.00 0.00 0.00 0.00 0.01 0.00 0.00 0.00 0.00 0.00 0.00 0.00 0.00 0.00 0.00 0.00 0.00 0.01 0.02 0.07 0.08 0.07 0.11 0.26 0.37 0.35 0.59 0.69 0.50 0.46 0.47 0.41 0.35 0.35 0.81
0.00 0.00 0.00 0.00 0.00 0.00 0.00 0.00 0.00 0.01 0.02 0.00 0.01 0.04 0.04 0.02 0.00 0.00 0.00 0.00 0.00 0.00 0.02 0.01 0.01 0.01 0.01 0.05 0.10 0.08 0.07 0.09 0.25 0.33 0.45 0.69 0.85 0.56 0.44 0.37 0.33 0.28 0.33
0.00 0.00 0.00 0.00 0.00 0.00 0.00 0.00 0.01 0.01 0.02 0.02 0.01 0.01 0.03 0.05 0.06 0.02 0.00 0.00 0.00 0.01 0.04 0.07 0.08 0.06 0.06 0.09 0.06 0.04 0.02 0.02 0.10 0.20 0.33 0.51 0.58 0.65 0.63 0.54 0.43 0.32 0.27
0.00 0.00 0.00 0.00 0.00 0.00 0.00 0.00 0.01 0.01 0.02 0.03 0.03 0.03 0.03 0.02 0.03 0.05 0.01 0.00 0.03 0.05 0.07 0.09 0.18 0.09 0.07 0.09 0.07 0.06 0.03 0.05 0.11 0.14 0.13 0.25 0.56 0.69 0.57 0.58 0.62 0.53 0.44
0.00 0.00 0.00 0.00 0.00 0.00 0.01 0.00 0.01 0.01 0.02 0.02 0.03 0.03 0.05 0.07 0.04 0.09 0.08 0.02 0.05 0.12 0.12 0.25 0.25 0.16 0.07 0.04 0.07 0.07 0.04 0.03 0.06 0.11 0.10 0.16 0.28 0.47 0.58 0.56 0.56 0.67 0.73
0.00 0.00 0.00 0.00 0.00 0.00 0.00 0.01 0.01 0.01 0.02 0.03 0.04 0.04 0.04 0.05 0.06 0.06 0.09 0.04 0.02 0.06 0.16 0.27 0.35 0.26 0.15 0.06 0.05 0.05 0.04 0.03 0.03 0.05 0.07 0.11 0.16 0.38 0.64 0.63 0.62 0.75 0.87
0.00 0.00 0.00 0.00 0.00 0.00 0.00 0.00 0.01 0.01 0.02 0.03 0.04 0.04 0.05 0.07 0.08 0.07 0.07 0.08 0.05 0.04 0.23 0.27 0.24 0.22 0.21 0.13 0.15 0.10 0.05 0.07 0.05 0.06 0.08 0.10 0.12 0.14 0.30 0.73 1.14 1.15 0.99
0.00 0.00 0.00 0.00 0.00 0.00 0.00 0.00 0.00 0.00 0.01 0.03 0.04 0.04 0.04 0.07 0.11 0.11 0.08 0.07 0.11 0.09 0.21 0.44 0.21 0.21 0.17 0.17 0.19 0.11 0.07 0.09 0.07 0.07 0.06 0.07 0.12 0.15 0.16 0.25 0.50 0.81 1.05
0.00 0.00 0.00 0.00 0.00 0.00 0.00 0.00 0.00 0.00 0.00 0.01 0.02 0.03 0.03 0.04 0.08 0.13 0.13 0.11 0.15 0.14 0.17 0.29 0.19 0.12 0.16 0.16 0.21 0.16 0.12 0.10 0.09 0.05 0.05 0.05 0.07 0.11 0.12 0.14 0.19 0.32 0.49
0.00 0.00 0.00 0.00 0.00 0.00 0.00 0.00 0.00 0.00 0.00 0.00 0.01 0.03 0.04 0.04 0.06 0.11 0.17 0.16 0.15 0.15 0.17 0.13 0.06 0.05 0.11 0.19 0.17 0.14 0.18 0.14 0.06 0.06 0.04 0.01 0.02 0.04 0.07 0.11 0.10 0.13 0.16
0.00 0.00 0.00 0.00 0.00 0.00 0.00 0.00 0.00 0.00 0.00 0.01 0.02 0.03 0.04 0.04 0.07 0.13 0.18 0.18 0.18 0.19 0.19 0.13 0.06 0.05 0.10 0.15 0.24 0.13 0.09 0.18 0.22 0.10 0.06 0.07 0.03 0.01 0.04 0.08 0.17 0.22 0.28
0.00 0.00 0.00 0.00 0.00 0.00 0.00 0.00 0.00 0.00 0.00 0.01 0.02 0.04 0.08 0.05 0.06 0.12 0.24 0.31 0.20 0.11 0.19 0.22 0.17 0.12 0.12 0.13 0.16 0.18 0.12 0.07 0.10 0.13 0.08 0.06 0.06 0.03 0.01 0.02 0.09 0.22 0.25
0.00 0.00 0.00 0.00 0.00 0.00 0.00 0.00 0.00 0.00 0.00 0.00 0.00 0.01 0.02 0.06 0.09 0.10 0.15 0.29 0.31 0.25 0.25 0.27 0.27 0.20 0.17 0.15 0.12 0.09 0.07 0.05 0.05 0.04 0.05 0.05 0.04 0.02 0.01 0.00 0.00 0.02 0.06
0.00 0.00 0.00 0.00 0.00 0.00 0.00 0.00 0.00 0.00 0.00 0.00 0.00 0.00 0.00 0.01 0.03 0.07 0.07 0.15 0.21 0.25 0.27 0.29 0.31 0.31 0.26 0.21 0.18 0.13 0.11 0.09 0.05 0.03 0.02 0.01 0.01 0.00 0.00 0.00 0.00 0.00 0.00
0.00 0.00 0.00 0.00 0.00 0.00 0.00 0.00 0.00 0.00 0.00 0.00 0.00 0.00 0.00 0.00 0.00 0.01 0.01 0.02 0.06 0.12 0.16 0.16 0.21 0.28 0.33 0.27 0.26 0.18 0.17 0.19 0.15 0.09 0.07 0.04 0.02 0.01 0.00 0.00 0.00 0.00 0.00
0.00 0.00 0.00 0.00 0.00 0.00 0.00 0.00 0.00 0.00 0.00 0.00 0.00 0.00 0.00 0.00 0.00 0.00 0.00 0.00 0.00 0.00 0.01 0.02 0.05 0.08 0.11 0.13 0.11 0.06 0.06 0.08 0.08 0.04 0.05 0.05 0.05 0.01 0.01 0.00 0.00 0.00 0.00
0.00 0.00 0.00 0.00 0.00 0.00 0.00 0.00 0.00 0.00 0.00 0.00 0.00 0.00 0.00 0.00 0.00 0.00 0.00 0.00 0.00 0.01 0.00 0.00 0.01 0.01 0.00 0.00 0.00 0.01 0.00 0.00 0.00 0.00 0.00 0.00 0.00 0.01 0.00 0.00 0.00 0.00 0.00
0.00 0.00 0.00 0.00 0.00 0.00 0.00 0.00 0.00 0.00 0.00 0.00 0.00 0.00 0.00 0.00 0.00 0.00 0.00 0.00 0.00 0.00 0.00 0.00 0.00 0.00 0.00 0.00 0.00 0.00 0.00 0.00 0.00 0.00 0.00 0.00 0.00 0.00 0.00 0.00 0.00 0.00 0.00
0.00 0.00 0.00 0.00 0.00 0.00 0.00 0.00 0.00 0.00 0.00 0.00 0.00 0.00 0.00 0.00 0.00 0.00 0.00 0.00 0.00 0.00 0.00 0.00 0.00 0.00 0.00 0.00 0.00 0.00 0.00 0.00 0.00 0.00 0.00 0.00 0.00 0.00 0.00 0.00 0.00 0.00 0.00

GFSMA_prec_precacc12_165.txt.gz
Total_Precipitation_Accumulation
0.00 0.00 0.00 0.00 0.00 0.00 0.00 0.00 0.00 0.00 0.00 0.00 0.00 0.00 0.00 0.00 0.00 0.00 0.01 0.03 0.06 0.04 0.02 0.06 0.06 0.10 0.09 0.06 0.08 0.15 0.18 0.16 0.20 0.26 0.24 0.17 0.18 0.15 0.09 0.03 0.00 0.00 0.00
0.00 0.00 0.00 0.00 0.00 0.00 0.00 0.00 0.00 0.00 0.00 0.00 0.00 0.00 0.00 0.00 0.00 0.00 0.00 0.00 0.02 0.06 0.06 0.04 0.03 0.06 0.15 0.16 0.18 0.44 0.29 0.19 0.17 0.17 0.21 0.22 0.23 0.22 0.14 0.05 0.01 0.00 0.00
0.00 0.00 0.00 0.00 0.00 0.00 0.00 0.00 0.00 0.00 0.00 0.00 0.00 0.00 0.00 0.00 0.00 0.00 0.00 0.00 0.00 0.01 0.02 0.05 0.02 0.03 0.12 0.19 0.22 0.48 0.48 0.28 0.21 0.18 0.19 0.18 0.19 0.16 0.11 0.10 0.04 0.00 0.00
0.00 0.00 0.00 0.00 0.00 0.00 0.00 0.00 0.00 0.00 0.00 0.00 0.00 0.00 0.00 0.00 0.00 0.00 0.00 0.00 0.00 0.00 0.00 0.00 0.00 0.00 0.03 0.12 0.15 0.28 0.24 0.21 0.27 0.29 0.36 0.40 0.31 0.24 0.19 0.14 0.11 0.02 0.00
0.00 0.00 0.00 0.00 0.00 0.00 0.00 0.00 0.00 0.00 0.00 0.00 0.00 0.00 0.00 0.00 0.00 0.00 0.00 0.00 0.00 0.00 0.00 0.00 0.00 0.00 0.00 0.03 0.09 0.10 0.16 0.18 0.22 0.37 0.45 0.50 0.48 0.45 0.37 0.26 0.19 0.13 0.06
0.00 0.00 0.00 0.00 0.00 0.00 0.00 0.00 0.00 0.00 0.00 0.00 0.00 0.00 0.00 0.00 0.00 0.00 0.00 0.00 0.00 0.00 0.00 0.00 0.01 0.01 0.00 0.01 0.03 0.08 0.12 0.21 0.27 0.34 0.46 0.50 0.62 0.65 0.63 0.53 0.38 0.24 0.15
0.00 0.00 0.00 0.00 0.00 0.00 0.00 0.00 0.00 0.00 0.00 0.00 0.00 0.00 0.00 0.00 0.00 0.00 0.00 0.00 0.00 0.00 0.00 0.00 0.01 0.01 0.02 0.04 0.03 0.04 0.12 0.21 0.30 0.36 0.49 0.56 0.56 0.65 0.63 0.62 0.54 0.68 0.46
0.00 0.00 0.00 0.00 0.00 0.00 0.00 0.00 0.00 0.00 0.00 0.00 0.01 0.00 0.00 0.00 0.00 0.00 0.00 0.00 0.00 0.00 0.00 0.00 0.00 0.01 0.01 0.02 0.04 0.05 0.08 0.18 0.25 0.32 0.60 0.80 0.64 0.67 0.69 0.57 0.47 0.44 0.87
0.00 0.00 0.00 0.00 0.00 0.00 0.00 0.00 0.00 0.01 0.01 0.00 0.01 0.04 0.03 0.01 0.00 0.00 0.00 0.00 0.00 0.00 0.02 0.01 0.01 0.03 0.02 0.05 0.10 0.09 0.05 0.05 0.10 0.19 0.37 0.68 0.87 0.67 0.60 0.51 0.43 0.34 0.40
0.00 0.00 0.00 0.00 0.00 0.00 0.00 0.00 0.00 0.00 0.01 0.01 0.01 0.01 0.03 0.05 0.06 0.02 0.00 0.00 0.00 0.02 0.06 0.10 0.11 0.07 0.08 0.10 0.06 0.04 0.01 0.01 0.03 0.09 0.15 0.28 0.37 0.55 0.62 0.53 0.46 0.38 0.34
0.00 0.00 0.00 0.00 0.00 0.00 0.00 0.00 0.00 0.01 0.01 0.02 0.02 0.02 0.02 0.02 0.02 0.05 0.01 0.00 0.03 0.05 0.10 0.12 0.22 0.10 0.06 0.05 0.04 0.06 0.03 0.03 0.03 0.05 0.09 0.17 0.30 0.31 0.35 0.49 0.65 0.56 0.47
0.00 0.00 0.00 0.00 0.00 0.00 0.00 0.00 0.01 0.00 0.01 0.01 0.01 0.02 0.04 0.07 0.04 0.09 0.07 0.01 0.06 0.12 0.14 0.30 0.30 0.22 0.15 0.05 0.07 0.10 0.08 0.06 0.05 0.05 0.04 0.05 0.11 0.26 0.29 0.34 0.49 0.61 0.69
0.00 0.00 0.00 0.00 0.00 0.00 0.00 0.00 0.00 0.00 0.00 0.01 0.02 0.03 0.03 0.04 0.05 0.06 0.09 0.04 0.02 0.06 0.17 0.37 0.40 0.29 0.23 0.18 0.10 0.10 0.10 0.10 0.12 0.13 0.12 0.10 0.08 0.17 0.36 0.41 0.41 0.61 0.80
0.00 0.00 0.00 0.00 0.00 0.00 0.00 0.00 0.00 0.00 0.00 0.00 0.01 0.02 0.03 0.04 0.06 0.06 0.08 0.08 0.05 0.04 0.25 0.40 0.31 0.30 0.29 0.26 0.23 0.16 0.07 0.14 0.13 0.12 0.12 0.14 0.13 0.11 0.19 0.48 0.83 0.95 1.05
0.00 0.00 0.00 0.00 0.00 0.00 0.00 0.00 0.00 0.00 0.00 0.00 0.01 0.02 0.02 0.03 0.05 0.06 0.07 0.08 0.13 0.10 0.23 0.53 0.33 0.28 0.18 0.27 0.28 0.23 0.23 0.15 0.15 0.15 0.12 0.12 0.15 0.14 0.13 0.20 0.38 0.62 0.88
0.00 0.00 0.00 0.00 0.00 0.00 0.00 0.00 0.00 0.00 0.00 0.00 0.01 0.02 0.02 0.03 0.04 0.05 0.09 0.09 0.13 0.15 0.18 0.35 0.28 0.16 0.16 0.17 0.23 0.24 0.52 0.34 0.16 0.10 0.11 0.12 0.11 0.13 0.13 0.13 0.14 0.22 0.37
0.00 0.00 0.00 0.00 0.00 0.00 0.00 0.00 0.00 0.00 0.00 0.00 0.00 0.01 0.02 0.02 0.04 0.06 0.12 0.13 0.15 0.16 0.19 0.20 0.13 0.10 0.12 0.19 0.18 0.15 0.22 0.25 0.18 0.16 0.08 0.05 0.06 0.09 0.09 0.11 0.11 0.11 0.10
0.00 0.00 0.00 0.00 0.00 0.00 0.00 0.00 0.00 0.00 0.00 0.00 0.00 0.01 0.02 0.02 0.03 0.07 0.11 0.14 0.16 0.20 0.24 0.17 0.11 0.10 0.15 0.18 0.27 0.18 0.10 0.20 0.30 0.23 0.14 0.09 0.06 0.05 0.06 0.06 0.07 0.08 0.09
0.00 0.00 0.00 0.00 0.00 0.00 0.00 0.00 0.00 0.00 0.00 0.00 0.00 0.01 0.04 0.02 0.03 0.07 0.14 0.21 0.16 0.12 0.21 0.24 0.21 0.15 0.15 0.16 0.18 0.20 0.14 0.09 0.13 0.26 0.24 0.17 0.12 0.11 0.09 0.07 0.05 0.05 0.05
0.00 0.00 0.00 0.00 0.00 0.00 0.00 0.00 0.00 0.00 0.00 0.00 0.00 0.00 0.01 0.03 0.05 0.06 0.11 0.22 0.23 0.21 0.24 0.26 0.27 0.20 0.18 0.19 0.16 0.13 0.11 0.08 0.06 0.04 0.07 0.10 0.09 0.09 0.13 0.12 0.08 0.04 0.03
0.00 0.00 0.00 0.00 0.00 0.00 0.00 0.00 0.00 0.00 0.00 0.00 0.00 0.00 0.00 0.00 0.01 0.03 0.03 0.10 0.18 0.23 0.26 0.28 0.31 0.31 0.26 0.24 0.23 0.21 0.16 0.13 0.09 0.06 0.02 0.01 0.01 0.01 0.02 0.02 0.04 0.04 0.01
0.00 0.00 0.00 0.00 0.00 0.00 0.00 0.00 0.00 0.00 0.00 0.00 0.00 0.00 0.00 0.00 0.00 0.00 0.01 0.01 0.04 0.09 0.13 0.14 0.20 0.29 0.34 0.28 0.29 0.24 0.24 0.26 0.20 0.12 0.10 0.06 0.01 0.00 0.00 0.00 0.01 0.00 0.01
0.00 0.00 0.00 0.00 0.00 0.00 0.00 0.00 0.00 0.00 0.00 0.00 0.00 0.00 0.00 0.00 0.00 0.00 0.00 0.00 0.00 0.00 0.00 0.01 0.03 0.07 0.11 0.15 0.15 0.09 0.10 0.11 0.10 0.05 0.08 0.08 0.06 0.01 0.00 0.00 0.00 0.00 0.00
0.00 0.00 0.00 0.00 0.00 0.00 0.00 0.00 0.00 0.00 0.00 0.00 0.00 0.00 0.00 0.00 0.00 0.00 0.00 0.00 0.00 0.01 0.00 0.00 0.01 0.01 0.00 0.00 0.00 0.01 0.01 0.01 0.00 0.00 0.00 0.00 0.01 0.01 0.00 0.00 0.00 0.00 0.00
0.00 0.00 0.00 0.00 0.00 0.00 0.00 0.00 0.00 0.00 0.00 0.00 0.00 0.00 0.00 0.00 0.00 0.00 0.00 0.00 0.00 0.00 0.00 0.00 0.00 0.00 0.00 0.00 0.00 0.00 0.00 0.00 0.00 0.00 0.00 0.00 0.00 0.01 0.01 0.00 0.00 0.00 0.00
0.00 0.00 0.00 0.00 0.00 0.00 0.00 0.00 0.00 0.00 0.00 0.00 0.00 0.00 0.00 0.00 0.00 0.00 0.00 0.00 0.00 0.00 0.00 0.00 0.00 0.00 0.00 0.00 0.00 0.00 0.00 0.00 0.00 0.00 0.00 0.00 0.00 0.00 0.03 0.00 0.00 0.00 0.00

GFSMA_prec_precacc12_171.txt.gz
Total_Precipitation_Accumulation
0.00 0.00 0.00 0.00 0.00 0.00 0.00 0.00 0.00 0.00 0.00 0.00 0.00 0.00 0.00 0.00 0.00 0.00 0.00 0.00 0.00 0.00 0.00 0.00 0.00 0.01 0.04 0.05 0.06 0.10 0.13 0.13 0.13 0.12 0.11 0.09 0.13 0.16 0.18 0.13 0.04 0.00 0.00
0.00 0.00 0.00 0.00 0.00 0.00 0.00 0.00 0.00 0.00 0.00 0.00 0.00 0.00 0.00 0.00 0.00 0.00 0.00 0.00 0.00 0.00 0.00 0.00 0.00 0.01 0.05 0.06 0.07 0.08 0.09 0.13 0.16 0.13 0.14 0.16 0.16 0.22 0.19 0.16 0.11 0.02 0.00
0.00 0.00 0.00 0.00 0.00 0.00 0.00 0.00 0.00 0.00 0.00 0.00 0.00 0.00 0.00 0.00 0.00 0.00 0.00 0.00 0.00 0.00 0.00 0.00 0.00 0.00 0.02 0.06 0.07 0.10 0.10 0.11 0.16 0.19 0.18 0.17 0.17 0.15 0.17 0.19 0.18 0.08 0.00
0.00 0.00 0.00 0.00 0.00 0.00 0.00 0.00 0.00 0.00 0.00 0.00 0.00 0.00 0.00 0.00 0.00 0.00 0.00 0.00 0.00 0.00 0.00 0.00 0.00 0.00 0.00 0.02 0.06 0.12 0.12 0.13 0.18 0.21 0.26 0.32 0.24 0.15 0.13 0.13 0.18 0.13 0.05
0.00 0.00 0.00 0.00 0.00 0.00 0.00 0.00 0.00 0.00 0.00 0.00 0.00 0.00 0.00 0.00 0.00 0.00 0.00 0.00 0.00 0.00 0.00 0.00 0.00 0.00 0.00 0.00 0.03 0.07 0.12 0.13 0.15 0.26 0.38 0.47 0.40 0.33 0.30 0.17 0.16 0.19 0.15
0.00 0.00 0.00 0.00 0.00 0.00 0.00 0.00 0.00 0.00 0.00 0.00 0.00 0.00 0.00 0.00 0.00 0.00 0.00 0.00 0.00 0.00 0.00 0.00 0.00 0.00 0.00 0.00 0.01 0.05 0.08 0.14 0.18 0.23 0.33 0.47 0.59 0.59 0.57 0.50 0.40 0.35 0.31
0.00 0.00 0.00 0.00 0.00 0.00 0.00 0.00 0.00 0.00 0.00 0.00 0.00 0.00 0.00 0.00 0.00 0.00 0.00 0.00 0.00 0.00 0.00 0.00 0.00 0.00 0.01 0.01 0.01 0.04 0.08 0.11 0.15 0.17 0.31 0.42 0.49 0.68 0.78 0.79 0.67 0.79 0.71
0.00 0.00 0.00 0.00 0.00 0.00 0.00 0.00 0.00 0.00 0.00 0.00 0.00 0.00 0.00 0.00 0.00 0.00 0.00 0.00 0.00 0.00 0.00 0.00 0.00 0.01 0.01 0.01 0.02 0.03 0.05 0.09 0.13 0.14 0.26 0.40 0.41 0.55 0.78 1.00 1.18 1.12 1.25
0.00 0.00 0.00 0.00 0.00 0.00 0.00 0.00 0.00 0.00 0.00 0.00 0.00 0.01 0.01 0.00 0.00 0.00 0.00 0.00 0.00 0.00 0.00 0.01 0.02 0.03 0.01 0.02 0.06 0.04 0.02 0.03 0.07 0.11 0.18 0.36 0.34 0.43 0.50 0.67 0.95 1.03 1.04
0.00 0.00 0.00 0.00 0.00 0.00 0.00 0.00 0.00 0.00 0.00 0.00 0.00 0.00 0.01 0.02 0.03 0.01 0.00 0.00 0.00 0.01 0.03 0.07 0.12 0.06 0.05 0.05 0.05 0.05 0.03 0.03 0.06 0.11 0.12 0.15 0.21 0.30 0.51 0.54 0.45 0.66 0.84
0.00 0.00 0.00 0.00 0.00 0.00 0.00 0.00 0.00 0.00 0.00 0.00 0.00 0.00 0.01 0.00 0.01 0.03 0.01 0.00 0.01 0.03 0.04 0.14 0.27 0.09 0.03 0.03 0.04 0.07 0.04 0.02 0.02 0.06 0.11 0.11 0.11 0.17 0.24 0.66 1.12 0.78 0.56
0.00 0.00 0.00 0.00 0.00 0.00 0.00 0.00 0.00 0.00 0.00 0.00 0.00 0.00 0.01 0.02 0.02 0.03 0.04 0.01 0.01 0.06 0.07 0.28 0.29 0.20 0.13 0.05 0.08 0.11 0.10 0.08 0.07 0.07 0.08 0.07 0.11 0.14 0.18 0.26 0.53 1.20 1.32
0.00 0.00 0.00 0.00 0.00 0.00 0.00 0.00 0.00 0.00 0.00 0.00 0.00 0.00 0.01 0.01 0.02 0.03 0.05 0.03 0.02 0.03 0.09 0.28 0.33 0.25 0.20 0.17 0.12 0.13 0.14 0.14 0.20 0.22 0.24 0.19 0.12 0.11 0.15 0.14 0.28 0.61 0.97
0.00 0.00 0.00 0.00 0.00 0.00 0.00 0.00 0.00 0.00 0.00 0.00 0.00 0.01 0.01 0.01 0.01 0.02 0.05 0.07 0.04 0.02 0.13 0.28 0.23 0.24 0.26 0.25 0.23 0.20 0.12 0.17 0.16 0.17 0.18 0.22 0.22 0.18 0.16 0.15 0.15 0.29 0.68
0.00 0.00 0.00 0.00 0.00 0.00 0.00 0.00 0.00 0.00 0.00 0.00 0.00 0.00 0.00 0.01 0.01 0.02 0.02 0.05 0.10 0.08 0.16 0.36 0.23 0.15 0.09 0.21 0.25 0.23 0.24 0.17 0.19 0.21 0.19 0.18 0.19 0.21 0.20 0.15 0.15 0.16 0.19
0.00 0.00 0.00 0.00 0.00 0.00 0.00 0.00 0.00 0.00 0.00 0.00 0.00 0.00 0.00 0.00 0.01 0.01 0.01 0.02 0.05 0.12 0.15 0.28 0.24 0.12 0.07 0.09 0.14 0.19 0.54 0.58 0.37 0.32 0.23 0.21 0.16 0.16 0.17 0.19 0.20 0.21 0.18
0.00 0.00 0.00 0.00 0.00 0.00 0.00 0.00 0.00 0.00 0.00 0.00 0.00 0.00 0.00 0.00 0.01 0.01 0.01 0.01 0.03 0.09 0.17 0.24 0.16 0.10 0.08 0.08 0.09 0.09 0.17 0.27 0.48 0.54 0.30 0.14 0.15 0.17 0.15 0.15 0.17 0.19 0.20
0.00 0.00 0.00 0.00 0.00 0.00 0.00 0.00 0.00 0.00 0.00 0.00 0.00 0.00 0.00 0.00 0.00 0.01 0.01 0.01 0.05 0.12 0.19 0.16 0.11 0.12 0.14 0.15 0.20 0.16 0.13 0.16 0.27 0.38 0.50 0.36 0.18 0.13 0.14 0.15 0.14 0.14 0.15
0.00 0.00 0.00 0.00 0.00 0.00 0.00 0.00 0.00 0.00 0.00 0.00 0.00 0.00 0.00 0.00 0.01 0.01 0.01 0.02 0.03 0.05 0.09 0.12 0.15 0.13 0.11 0.15 0.17 0.19 0.15 0.11 0.12 0.24 0.27 0.39 0.50 0.39 0.27 0.22 0.17 0.14 0.13
0.00 0.00 0.00 0.00 0.00 0.00 0.00 0.00 0.00 0.00 0.00 0.00 0.00 0.00 0.00 0.00 0.01 0.00 0.01 0.02 0.04 0.06 0.07 0.07 0.09 0.11 0.10 0.14 0.14 0.16 0.15 0.13 0.09 0.05 0.07 0.10 0.13 0.18 0.25 0.35 0.36 0.29 0.24
0.00 0.00 0.00 0.00 0.00 0.00 0.00 0.00 0.00 0.00 0.00 0.00 0.00 0.00 0.00 0.00 0.00 0.00 0.00 0.00 0.01 0.03 0.04 0.05 0.08 0.10 0.09 0.12 0.15 0.16 0.18 0.18 0.13 0.09 0.03 0.00 0.00 0.01 0.02 0.06 0.20 0.28 0.32
0.00 0.00 0.00 0.00 0.00 0.00 0.00 0.00 0.00 0.00 0.00 0.00 0.00 0.00 0.00 0.00 0.00 0.00 0.00 0.00 0.00 0.00 0.01 0.03 0.08 0.13 0.16 0.15 0.19 0.19 0.16 0.19 0.16 0.11 0.13 0.08 0.01 0.00 0.00 0.00 0.01 0.07 0.11
0.00 0.00 0.00 0.00 0.00 0.00 0.00 0.00 0.00 0.00 0.00 0.00 0.00 0.00 0.00 0.00 0.00 0.00 0.00 0.00 0.00 0.00 0.00 0.00 0.01 0.03 0.08 0.11 0.14 0.09 0.09 0.08 0.07 0.05 0.07 0.09 0.06 0.01 0.00 0.00 0.00 0.00 0.01
0.00 0.00 0.00 0.00 0.00 0.00 0.00 0.00 0.00 0.00 0.00 0.00 0.00 0.00 0.00 0.00 0.00 0.00 0.00 0.00 0.00 0.00 0.00 0.00 0.00 0.00 0.00 0.00 0.01 0.01 0.01 0.01 0.00 0.00 0.00 0.01 0.03 0.02 0.00 0.00 0.00 0.00 0.00
0.00 0.00 0.00 0.00 0.00 0.00 0.00 0.00 0.00 0.00 0.00 0.00 0.00 0.00 0.00 0.00 0.00 0.00 0.00 0.00 0.00 0.00 0.00 0.00 0.00 0.00 0.00 0.00 0.00 0.00 0.00 0.00 0.00 0.00 0.00 0.01 0.02 0.05 0.01 0.00 0.00 0.00 0.00
0.00 0.00 0.00 0.00 0.00 0.00 0.00 0.00 0.00 0.00 0.00 0.00 0.00 0.00 0.00 0.00 0.00 0.00 0.00 0.00 0.00 0.00 0.00 0.00 0.00 0.00 0.00 0.00 0.00 0.00 0.00 0.00 0.00 0.00 0.00 0.01 0.00 0.03 0.08 0.02 0.00 0.00 0.00

GFSMA_prec_precacc12_174.txt.gz
Total_Precipitation_Accumulation
0.00 0.00 0.00 0.00 0.00 0.00 0.00 0.00 0.00 0.00 0.00 0.00 0.00 0.00 0.00 0.00 0.00 0.00 0.00 0.00 0.00 0.00 0.00 0.00 0.00 0.00 0.02 0.04 0.05 0.09 0.12 0.13 0.13 0.12 0.11 0.10 0.15 0.21 0.25 0.24 0.23 0.13 0.04
0.00 0.00 0.00 0.00 0.00 0.00 0.00 0.00 0.00 0.00 0.00 0.00 0.00 0.00 0.00 0.00 0.00 0.00 0.00 0.00 0.00 0.00 0.00 0.00 0.00 0.00 0.00 0.02 0.04 0.07 0.09 0.13 0.15 0.12 0.13 0.16 0.16 0.22 0.21 0.21 0.21 0.15 0.13
0.00 0.00 0.00 0.00 0.00 0.00 0.00 0.00 0.00 0.00 0.00 0.00 0.00 0.00 0.00 0.00 0.00 0.00 0.00 0.00 0.00 0.00 0.00 0.00 0.00 0.00 0.00 0.00 0.01 0.04 0.06 0.10 0.14 0.16 0.16 0.17 0.18 0.16 0.18 0.20 0.22 0.19 0.14
0.00 0.00 0.00 0.00 0.00 0.00 0.00 0.00 0.00 0.00 0.00 0.00 0.00 0.00 0.00 0.00 0.00 0.00 0.00 0.00 0.00 0.00 0.00 0.00 0.00 0.00 0.00 0.00 0.00 0.03 0.06 0.09 0.12 0.14 0.19 0.28 0.23 0.16 0.15 0.14 0.17 0.19 0.19
0.00 0.00 0.00 0.00 0.00 0.00 0.00 0.00 0.00 0.00 0.00 0.00 0.00 0.00 0.00 0.00 0.00 0.00 0.00 0.00 0.00 0.00 0.00 0.00 0.00 0.00 0.00 0.00 0.00 0.03 0.07 0.09 0.12 0.16 0.22 0.35 0.34 0.30 0.28 0.16 0.13 0.15 0.20
0.00 0.00 0.00 0.00 0.00 0.00 0.00 0.00 0.00 0.00 0.00 0.00 0.00 0.00 0.00 0.00 0.00 0.00 0.00 0.00 0.00 0.00 0.00 0.00 0.00 0.00 0.00 0.00 0.01 0.03 0.06 0.09 0.13 0.16 0.23 0.39 0.49 0.47 0.46 0.44 0.33 0.28 0.29
0.00 0.00 0.00 0.00 0.00 0.00 0.00 0.00 0.00 0.00 0.00 0.00 0.00 0.00 0.00 0.00 0.00 0.00 0.00 0.00 0.00 0.00 0.00 0.00 0.00 0.00 0.01 0.01 0.01 0.03 0.05 0.07 0.09 0.12 0.22 0.34 0.45 0.59 0.66 0.65 0.58 0.53 0.45
0.00 0.00 0.00 0.00 0.00 0.00 0.00 0.00 0.00 0.00 0.00 0.00 0.00 0.00 0.00 0.00 0.00 0.00 0.00 0.00 0.00 0.00 0.00 0.00 0.01 0.01 0.01 0.00 0.01 0.03 0.03 0.04 0.07 0.09 0.17 0.34 0.40 0.50 0.65 0.87 1.06 0.97 0.66
0.00 0.00 0.00 0.00 0.00 0.00 0.00 0.00 0.00 0.00 0.00 0.00 0.00 0.00 0.00 0.00 0.00 0.00 0.00 0.00 0.00 0.00 0.00 0.01 0.02 0.03 0.01 0.01 0.02 0.03 0.02 0.02 0.04 0.08 0.14 0.27 0.31 0.36 0.43 0.60 0.86 0.95 0.91
0.00 0.00 0.00 0.00 0.00 0.00 0.00 0.00 0.00 0.00 0.00 0.00 0.00 0.00 0.00 0.01 0.01 0.00 0.00 0.00 0.00 0.00 0.02 0.05 0.09 0.04 0.03 0.03 0.04 0.06 0.04 0.04 0.05 0.08 0.10 0.13 0.19 0.30 0.47 0.49 0.40 0.62 0.80
0.00 0.00 0.00 0.00 0.00 0.00 0.00 0.00 0.00 0.00 0.00 0.00 0.00 0.00 0.00 0.00 0.00 0.02 0.01 0.00 0.00 0.00 0.02 0.08 0.14 0.06 0.02 0.02 0.03 0.07 0.05 0.02 0.04 0.07 0.12 0.12 0.12 0.14 0.21 0.60 1.03 0.71 0.51
0.00 0.00 0.00 0.00 0.00 0.00 0.00 0.00 0.00 0.00 0.00 0.00 0.00 0.00 0.00 0.01 0.01 0.02 0.02 0.00 0.00 0.00 0.02 0.16 0.12 0.10 0.09 0.05 0.06 0.09 0.09 0.08 0.08 0.07 0.07 0.08 0.12 0.14 0.17 0.20 0.46 1.07 1.19
0.00 0.00 0.00 0.00 0.00 0.00 0.00 0.00 0.00 0.00 0.00 0.00 0.00 0.00 0.00 0.00 0.01 0.02 0.04 0.02 0.01 0.00 0.02 0.17 0.13 0.09 0.12 0.14 0.10 0.10 0.11 0.13 0.19 0.22 0.24 0.17 0.12 0.13 0.16 0.13 0.20 0.46 0.77
0.00 0.00 0.00 0.00 0.00 0.00 0.00 0.00 0.00 0.00 0.00 0.00 0.00 0.00 0.00 0.00 0.01 0.01 0.04 0.05 0.03 0.00 0.03 0.17 0.15 0.16 0.13 0.17 0.15 0.14 0.09 0.14 0.14 0.16 0.19 0.23 0.25 0.22 0.18 0.16 0.18 0.25 0.58
0.00 0.00 0.00 0.00 0.00 0.00 0.00 0.00 0.00 0.00 0.00 0.00 0.00 0.00 0.00 0.00 0.00 0.01 0.01 0.04 0.07 0.04 0.02 0.12 0.16 0.12 0.04 0.12 0.16 0.16 0.19 0.14 0.15 0.17 0.18 0.20 0.20 0.22 0.21 0.16 0.17 0.19 0.20
0.00 0.00 0.00 0.00 0.00 0.00 0.00 0.00 0.00 0.00 0.00 0.00 0.00 0.00 0.00 0.00 0.00 0.00 0.01 0.01 0.03 0.07 0.05 0.11 0.13 0.10 0.03 0.03 0.08 0.13 0.47 0.51 0.33 0.34 0.30 0.29 0.19 0.16 0.16 0.18 0.21 0.24 0.22
0.00 0.00 0.00 0.00 0.00 0.00 0.00 0.00 0.00 0.00 0.00 0.00 0.00 0.00 0.00 0.00 0.00 0.00 0.00 0.01 0.01 0.04 0.08 0.16 0.12 0.09 0.07 0.04 0.05 0.06 0.08 0.20 0.45 0.52 0.34 0.19 0.17 0.21 0.18 0.16 0.18 0.25 0.33
0.00 0.00 0.00 0.00 0.00 0.00 0.00 0.00 0.00 0.00 0.00 0.00 0.00 0.00 0.00 0.00 0.00 0.00 0.00 0.01 0.02 0.04 0.11 0.12 0.09 0.10 0.11 0.11 0.09 0.10 0.09 0.06 0.12 0.34 0.47 0.31 0.18 0.14 0.16 0.20 0.19 0.15 0.17
0.00 0.00 0.00 0.00 0.00 0.00 0.00 0.00 0.00 0.00 0.00 0.00 0.00 0.00 0.00 0.00 0.00 0.00 0.00 0.01 0.01 0.03 0.05 0.07 0.10 0.09 0.08 0.08 0.09 0.08 0.07 0.06 0.04 0.15 0.22 0.34 0.45 0.36 0.28 0.23 0.19 0.15 0.14
0.00 0.00 0.00 0.00 0.00 0.00 0.00 0.00 0.00 0.00 0.00 0.00 0.00 0.00 0.00 0.00 0.00 0.00 0.00 0.00 0.01 0.01 0.02 0.03 0.04 0.04 0.05 0.06 0.07 0.09 0.10 0.09 0.05 0.02 0.03 0.07 0.10 0.16 0.24 0.35 0.38 0.34 0.26
0.00 0.00 0.00 0.00 0.00 0.00 0.00 0.00 0.00 0.00 0.00 0.00 0.00 0.00 0.00 0.00 0.00 0.00 0.00 0.00 0.00 0.00 0.00 0.01 0.01 0.02 0.03 0.05 0.08 0.11 0.12 0.13 0.09 0.07 0.02 0.00 0.00 0.01 0.02 0.05 0.20 0.33 0.40
0.00 0.00 0.00 0.00 0.00 0.00 0.00 0.00 0.00 0.00 0.00 0.00 0.00 0.00 0.00 0.00 0.00 0.00 0.00 0.00 0.00 0.00 0.00 0.00 0.01 0.02 0.04 0.05 0.08 0.09 0.08 0.11 0.10 0.06 0.09 0.06 0.01 0.00 0.00 0.00 0.02 0.07 0.13
0.00 0.00 0.00 0.00 0.00 0.00 0.00 0.00 0.00 0.00 0.00 0.00 0.00 0.00 0.00 0.00 0.00 0.00 0.00 0.00 0.00 0.00 0.00 0.00 0.00 0.00 0.01 0.03 0.05 0.05 0.04 0.03 0.02 0.02 0.04 0.06 0.03 0.00 0.00 0.00 0.01 0.01 0.02
0.00 0.00 0.00 0.00 0.00 0.00 0.00 0.00 0.00 0.00 0.00 0.00 0.00 0.00 0.00 0.00 0.00 0.00 0.00 0.00 0.00 0.00 0.00 0.00 0.00 0.00 0.00 0.00 0.00 0.00 0.01 0.00 0.00 0.00 0.00 0.02 0.03 0.01 0.00 0.00 0.01 0.01 0.01
0.00 0.00 0.00 0.00 0.00 0.00 0.00 0.00 0.00 0.00 0.00 0.00 0.00 0.00 0.00 0.00 0.00 0.00 0.00 0.00 0.00 0.00 0.00 0.00 0.00 0.00 0.00 0.00 0.00 0.00 0.00 0.00 0.00 0.00 0.00 0.01 0.03 0.04 0.01 0.00 0.00 0.00 0.00
0.00 0.00 0.00 0.00 0.00 0.00 0.00 0.00 0.00 0.00 0.00 0.00 0.00 0.00 0.00 0.00 0.00 0.00 0.00 0.00 0.00 0.00 0.00 0.00 0.00 0.00 0.00 0.00 0.00 0.00 0.00 0.00 0.00 0.00 0.00 0.01 0.01 0.04 0.08 0.02 0.00 0.00 0.00

GFSMA_prec_precacc12_180.txt.gz
Total_Precipitation_Accumulation
0.00 0.00 0.00 0.00 0.00 0.00 0.00 0.00 0.00 0.00 0.00 0.00 0.00 0.00 0.00 0.00 0.00 0.00 0.00 0.00 0.00 0.00 0.00 0.00 0.00 0.00 0.00 0.00 0.00 0.00 0.01 0.02 0.03 0.05 0.07 0.08 0.10 0.14 0.17 0.23 0.29 0.25 0.24
0.00 0.00 0.00 0.00 0.00 0.00 0.00 0.00 0.00 0.00 0.00 0.00 0.00 0.00 0.00 0.00 0.00 0.00 0.00 0.00 0.00 0.00 0.00 0.00 0.00 0.00 0.00 0.00 0.00 0.01 0.01 0.02 0.03 0.04 0.06 0.07 0.07 0.12 0.14 0.15 0.21 0.21 0.22
0.00 0.00 0.00 0.00 0.00 0.00 0.00 0.00 0.00 0.00 0.00 0.00 0.00 0.00 0.00 0.00 0.00 0.00 0.00 0.00 0.00 0.00 0.00 0.00 0.00 0.00 0.00 0.00 0.00 0.01 0.02 0.02 0.03 0.04 0.04 0.07 0.08 0.08 0.14 0.16 0.17 0.21 0.19
0.00 0.00 0.00 0.00 0.00 0.00 0.00 0.00 0.00 0.00 0.00 0.00 0.00 0.00 0.00 0.00 0.00 0.00 0.00 0.00 0.00 0.00 0.00 0.00 0.00 0.00 0.00 0.01 0.01 0.03 0.04 0.05 0.04 0.04 0.04 0.07 0.09 0.08 0.10 0.13 0.15 0.18 0.21
0.00 0.00 0.00 0.00 0.00 0.00 0.00 0.00 0.00 0.00 0.00 0.00 0.00 0.00 0.00 0.00 0.00 0.00 0.00 0.00 0.00 0.00 0.00 0.00 0.00 0.00 0.00 0.01 0.02 0.04 0.06 0.07 0.07 0.05 0.04 0.04 0.08 0.13 0.13 0.11 0.13 0.14 0.20
0.00 0.00 0.00 0.00 0.00 0.00 0.00 0.00 0.00 0.00 0.00 0.00 0.00 0.00 0.00 0.00 0.00 0.00 0.00 0.00 0.00 0.00 0.00 0.00 0.00 0.00 0.00 0.00 0.02 0.05 0.08 0.08 0.07 0.07 0.06 0.05 0.05 0.12 0.17 0.18 0.18 0.22 0.27
0.00 0.00 0.00 0.00 0.00 0.00 0.00 0.00 0.00 0.00 0.00 0.00 0.00 0.00 0.00 0.00 0.00 0.00 0.00 0.00 0.00 0.00 0.00 0.00 0.00 0.00 0.01 0.01 0.01 0.04 0.06 0.07 0.07 0.07 0.06 0.05 0.05 0.05 0.17 0.30 0.26 0.28 0.31
0.00 0.00 0.00 0.00 0.00 0.00 0.00 0.00 0.00 0.00 0.00 0.00 0.00 0.00 0.00 0.00 0.00 0.00 0.00 0.00 0.00 0.00 0.00 0.00 0.00 0.01 0.00 0.00 0.01 0.03 0.03 0.04 0.05 0.06 0.07 0.06 0.06 0.06 0.09 0.34 0.70 0.74 0.51
0.00 0.00 0.00 0.00 0.00 0.00 0.00 0.00 0.00 0.00 0.00 0.00 0.00 0.00 0.00 0.00 0.00 0.00 0.00 0.00 0.00 0.00 0.00 0.01 0.01 0.01 0.00 0.00 0.01 0.02 0.03 0.02 0.04 0.07 0.09 0.09 0.09 0.10 0.10 0.11 0.35 0.65 0.67
0.00 0.00 0.00 0.00 0.00 0.00 0.00 0.00 0.00 0.00 0.00 0.00 0.00 0.00 0.00 0.00 0.00 0.00 0.00 0.00 0.00 0.00 0.00 0.02 0.03 0.01 0.01 0.00 0.01 0.03 0.04 0.03 0.03 0.05 0.07 0.08 0.10 0.12 0.12 0.13 0.13 0.35 0.57
0.00 0.00 0.00 0.00 0.00 0.00 0.00 0.00 0.00 0.00 0.00 0.00 0.00 0.00 0.00 0.00 0.00 0.00 0.00 0.00 0.00 0.00 0.00 0.04 0.04 0.02 0.00 0.00 0.01 0.03 0.03 0.02 0.03 0.04 0.06 0.07 0.08 0.08 0.09 0.13 0.14 0.12 0.14
0.00 0.00 0.00 0.00 0.00 0.00 0.00 0.00 0.00 0.00 0.00 0.00 0.00 0.00 0.00 0.00 0.00 0.00 0.00 0.00 0.00 0.00 0.00 0.04 0.02 0.03 0.01 0.00 0.02 0.03 0.03 0.02 0.03 0.04 0.07 0.09 0.11 0.10 0.12 0.13 0.16 0.18 0.16
0.00 0.00 0.00 0.00 0.00 0.00 0.00 0.00 0.00 0.00 0.00 0.00 0.00 0.00 0.00 0.00 0.00 0.00 0.00 0.00 0.00 0.00 0.00 0.03 0.02 0.02 0.03 0.01 0.02 0.02 0.03 0.02 0.03 0.07 0.13 0.13 0.13 0.16 0.19 0.21 0.20 0.19 0.27
0.00 0.00 0.00 0.00 0.00 0.00 0.00 0.00 0.00 0.00 0.00 0.00 0.00 0.00 0.00 0.00 0.00 0.00 0.01 0.01 0.00 0.00 0.00 0.02 0.02 0.01 0.03 0.02 0.02 0.01 0.02 0.03 0.02 0.04 0.07 0.12 0.17 0.21 0.26 0.33 0.23 0.18 0.17
0.00 0.00 0.00 0.00 0.00 0.00 0.00 0.00 0.00 0.00 0.00 0.00 0.00 0.00 0.00 0.00 0.00 0.00 0.00 0.01 0.02 0.01 0.00 0.01 0.01 0.01 0.01 0.01 0.03 0.02 0.01 0.02 0.03 0.05 0.09 0.18 0.18 0.16 0.23 0.23 0.20 0.17 0.21
0.00 0.00 0.00 0.00 0.00 0.00 0.00 0.00 0.00 0.00 0.00 0.00 0.00 0.00 0.00 0.00 0.00 0.00 0.00 0.00 0.01 0.02 0.02 0.02 0.03 0.01 0.01 0.01 0.03 0.04 0.01 0.01 0.05 0.21 0.21 0.26 0.18 0.16 0.13 0.17 0.20 0.30 0.24
0.00 0.00 0.00 0.00 0.00 0.00 0.00 0.00 0.00 0.00 0.00 0.00 0.00 0.00 0.00 0.00 0.00 0.00 0.00 0.00 0.00 0.01 0.01 0.04 0.02 0.01 0.01 0.00 0.01 0.03 0.03 0.00 0.03 0.17 0.22 0.12 0.08 0.13 0.15 0.11 0.14 0.26 0.54
0.00 0.00 0.00 0.00 0.00 0.00 0.00 0.00 0.00 0.00 0.00 0.00 0.00 0.00 0.00 0.00 0.00 0.00 0.00 0.00 0.00 0.01 0.01 0.02 0.00 0.01 0.01 0.02 0.01 0.01 0.01 0.01 0.00 0.02 0.07 0.11 0.10 0.07 0.08 0.14 0.16 0.09 0.18
0.00 0.00 0.00 0.00 0.00 0.00 0.00 0.00 0.00 0.00 0.00 0.00 0.00 0.00 0.00 0.00 0.00 0.00 0.00 0.00 0.00 0.00 0.00 0.00 0.01 0.01 0.01 0.01 0.01 0.01 0.00 0.01 0.00 0.00 0.00 0.03 0.16 0.18 0.14 0.12 0.09 0.08 0.07
0.00 0.00 0.00 0.00 0.00 0.00 0.00 0.00 0.00 0.00 0.00 0.00 0.00 0.00 0.00 0.00 0.00 0.00 0.00 0.00 0.00 0.00 0.00 0.00 0.00 0.00 0.00 0.00 0.01 0.02 0.02 0.01 0.01 0.00 0.00 0.00 0.00 0.05 0.08 0.14 0.22 0.19 0.14
0.02 0.01 0.01 0.00 0.00 0.00 0.00 0.00 0.00 0.00 0.00 0.00 0.00 0.00 0.00 0.00 0.00 0.00 0.00 0.00 0.00 0.00 0.00 0.00 0.00 0.00 0.00 0.00 0.01 0.01 0.02 0.03 0.01 0.01 0.00 0.00 0.00 0.00 0.01 0.02 0.07 0.17 0.21
0.02 0.01 0.01 0.00 0.00 0.00 0.00 0.00 0.00 0.00 0.00 0.00 0.00 0.00 0.00 0.00 0.00 0.00 0.00 0.00 0.00 0.00 0.00 0.00 0.00 0.00 0.00 0.00 0.00 0.00 0.00 0.01 0.01 0.00 0.02 0.01 0.00 0.00 0.00 0.01 0.03 0.05 0.09
0.02 0.01 0.01 0.01 0.00 0.00 0.00 0.00 0.00 0.00 0.00 0.00 0.00 0.00 0.00 0.00 0.00 0.00 0.00 0.00 0.00 0.00 0.00 0.00 0.00 0.00 0.00 0.00 0.00 0.00 0.00 0.00 0.00 0.00 0.00 0.02 0.00 0.00 0.00 0.01 0.02 0.03 0.03
0.06 0.04 0.02 0.01 0.00 0.00 0.00 0.00 0.00 0.00 0.00 0.00 0.00 0.00 0.00 0.00 0.00 0.00 0.00 0.00 0.00 0.00 0.00 0.00 0.00 0.00 0.00 0.00 0.00 0.00 0.00 0.00 0.00 0.00 0.00 0.02 0.03 0.00 0.00 0.00 0.01 0.01 0.03
0.14 0.12 0.06 0.03 0.02 0.00 0.00 0.00 0.00 0.00 0.00 0.00 0.00 0.00 0.00 0.00 0.00 0.00 0.00 0.00 0.00 0.00 0.00 0.00 0.00 0.00 0.00 0.00 0.00 0.00 0.00 0.00 0.00 0.00 0.00 0.00 0.03 0.03 0.00 0.00 0.00 0.00 0.00
0.17 0.19 0.16 0.08 0.02 0.00 0.00 0.00 0.00 0.00 0.00 0.00 0.00 0.00 0.00 0.00 0.00 0.00 0.00 0.00 0.00 0.00 0.00 0.00 0.00 0.00 0.00 0.00 0.00 0.00 0.00 0.00 0.00 0.00 0.00 0.00 0.01 0.03 0.03 0.00 0.00 0.00 0.00

GFSMA_prec_precacc12_186.txt.gz
Total_Precipitation_Accumulation
0.00 0.00 0.00 0.00 0.00 0.00 0.00 0.00 0.00 0.00 0.00 0.00 0.00 0.00 0.00 0.00 0.00 0.00 0.00 0.00 0.00 0.00 0.00 0.00 0.00 0.00 0.00 0.00 0.00 0.00 0.00 0.01 0.01 0.00 0.00 0.00 0.00 0.00 0.00 0.02 0.05 0.11 0.20
0.00 0.00 0.00 0.00 0.00 0.00 0.00 0.00 0.00 0.00 0.00 0.00 0.00 0.00 0.00 0.00 0.00 0.00 0.00 0.00 0.00 0.00 0.00 0.00 0.00 0.00 0.00 0.01 0.01 0.01 0.01 0.02 0.02 0.01 0.01 0.01 0.00 0.00 0.00 0.00 0.02 0.05 0.10
0.01 0.00 0.00 0.00 0.00 0.00 0.00 0.00 0.00 0.00 0.00 0.00 0.00 0.00 0.00 0.00 0.00 0.00 0.00 0.00 0.00 0.00 0.00 0.00 0.00 0.00 0.01 0.01 0.01 0.02 0.02 0.02 0.02 0.02 0.02 0.02 0.01 0.01 0.01 0.00 0.00 0.02 0.06
0.01 0.00 0.00 0.00 0.00 0.00 0.00 0.00 0.00 0.00 0.00 0.00 0.00 0.00 0.00 0.00 0.00 0.00 0.00 0.00 0.00 0.00 0.00 0.00 0.00 0.00 0.01 0.02 0.03 0.04 0.05 0.05 0.04 0.04 0.04 0.03 0.02 0.02 0.01 0.01 0.01 0.01 0.02
0.00 0.00 0.00 0.00 0.00 0.00 0.00 0.00 0.00 0.00 0.00 0.00 0.00 0.00 0.00 0.00 0.00 0.00 0.00 0.00 0.00 0.00 0.00 0.00 0.00 0.00 0.01 0.02 0.03 0.05 0.06 0.06 0.06 0.05 0.04 0.04 0.03 0.02 0.02 0.02 0.02 0.02 0.02
0.00 0.00 0.00 0.00 0.00 0.00 0.00 0.00 0.00 0.00 0.00 0.00 0.00 0.00 0.00 0.00 0.00 0.00 0.00 0.00 0.00 0.00 0.00 0.00 0.00 0.00 0.00 0.00 0.01 0.04 0.05 0.05 0.05 0.06 0.06 0.06 0.05 0.04 0.04 0.03 0.03 0.02 0.03
0.00 0.00 0.00 0.00 0.00 0.00 0.00 0.00 0.00 0.00 0.00 0.00 0.00 0.00 0.00 0.00 0.00 0.00 0.00 0.00 0.00 0.00 0.00 0.00 0.00 0.00 0.00 0.00 0.01 0.02 0.03 0.03 0.05 0.06 0.06 0.06 0.06 0.05 0.04 0.04 0.04 0.04 0.04
0.00 0.00 0.00 0.00 0.00 0.00 0.00 0.00 0.00 0.00 0.00 0.00 0.00 0.00 0.00 0.00 0.00 0.00 0.00 0.00 0.00 0.00 0.00 0.00 0.00 0.00 0.00 0.00 0.00 0.01 0.01 0.02 0.03 0.05 0.06 0.06 0.06 0.07 0.07 0.07 0.06 0.06 0.06
0.01 0.00 0.01 0.00 0.00 0.00 0.00 0.00 0.00 0.00 0.00 0.00 0.00 0.00 0.00 0.00 0.00 0.00 0.00 0.00 0.00 0.00 0.00 0.01 0.00 0.00 0.00 0.00 0.00 0.00 0.01 0.01 0.02 0.05 0.07 0.07 0.08 0.09 0.09 0.09 0.09 0.08 0.07
0.01 0.00 0.00 0.00 0.00 0.00 0.00 0.00 0.00 0.00 0.00 0.00 0.00 0.00 0.00 0.00 0.00 0.00 0.00 0.00 0.00 0.00 0.00 0.01 0.00 0.00 0.00 0.00 0.00 0.01 0.02 0.02 0.02 0.03 0.05 0.07 0.08 0.08 0.08 0.11 0.10 0.09 0.07
0.01 0.00 0.00 0.00 0.00 0.00 0.00 0.00 0.00 0.00 0.00 0.00 0.00 0.00 0.00 0.00 0.00 0.00 0.00 0.00 0.00 0.00 0.00 0.01 0.00 0.00 0.00 0.00 0.00 0.00 0.01 0.01 0.01 0.03 0.05 0.06 0.08 0.08 0.08 0.08 0.08 0.10 0.08
0.02 0.01 0.00 0.00 0.00 0.00 0.00 0.00 0.00 0.00 0.00 0.00 0.00 0.00 0.00 0.00 0.00 0.00 0.00 0.00 0.00 0.00 0.00 0.00 0.00 0.00 0.01 0.00 0.01 0.01 0.01 0.01 0.01 0.02 0.03 0.05 0.08 0.08 0.10 0.12 0.12 0.12 0.12
0.03 0.01 0.00 0.00 0.00 0.00 0.00 0.01 0.01 0.00 0.00 0.00 0.00 0.00 0.00 0.00 0.00 0.00 0.00 0.00 0.00 0.00 0.01 0.01 0.00 0.00 0.01 0.00 0.01 0.01 0.00 0.01 0.01 0.02 0.03 0.05 0.07 0.08 0.14 0.20 0.20 0.15 0.15
0.07 0.05 0.03 0.02 0.01 0.00 0.00 0.00 0.01 0.01 0.00 0.00 0.00 0.00 0.00 0.00 0.00 0.00 0.00 0.00 0.00 0.00 0.00 0.01 0.00 0.00 0.00 0.00 0.01 0.00 0.00 0.00 0.00 0.01 0.03 0.05 0.08 0.09 0.15 0.24 0.16 0.13 0.10
0.07 0.06 0.06 0.07 0.02 0.00 0.00 0.00 0.00 0.00 0.00 0.00 0.00 0.00 0.00 0.00 0.00 0.00 0.00 0.00 0.00 0.00 0.00 0.00 0.00 0.00 0.00 0.00 0.00 0.00 0.00 0.00 0.00 0.01 0.03 0.10 0.11 0.08 0.16 0.16 0.12 0.09 0.14
0.29 0.22 0.13 0.06 0.02 0.00 0.00 0.00 0.00 0.00 0.00 0.00 0.00 0.00 0.00 0.00 0.00 0.00 0.00 0.00 0.00 0.00 0.00 0.00 0.01 0.00 0.00 0.00 0.00 0.00 0.00 0.00 0.00 0.00 0.01 0.07 0.08 0.08 0.06 0.08 0.10 0.16 0.13
0.42 0.32 0.26 0.23 0.15 0.09 0.05 0.03 0.01 0.00 0.00 0.00 0.00 0.00 0.00 0.00 0.00 0.00 0.00 0.00 0.00 0.00 0.00 0.00 0.00 0.00 0.00 0.00 0.00 0.00 0.00 0.00 0.00 0.00 0.00 0.01 0.02 0.03 0.04 0.03 0.06 0.12 0.33
0.34 0.33 0.30 0.26 0.22 0.18 0.12 0.05 0.01 0.00 0.00 0.00 0.00 0.00 0.00 0.00 0.00 0.00 0.00 0.00 0.00 0.00 0.00 0.00 0.00 0.00 0.00 0.00 0.01 0.00 0.00 0.00 0.00 0.00 0.00 0.00 0.01 0.02 0.03 0.03 0.05 0.03 0.11
0.40 0.32 0.28 0.26 0.23 0.21 0.13 0.05 0.02 0.01 0.01 0.00 0.00 0.00 0.00 0.00 0.00 0.00 0.00 0.00 0.00 0.00 0.00 0.00 0.00 0.00 0.00 0.00 0.00 0.00 0.00 0.00 0.00 0.00 0.00 0.00 0.00 0.01 0.02 0.02 0.02 0.01 0.01
0.32 0.28 0.24 0.18 0.16 0.14 0.07 0.01 0.00 0.01 0.00 0.00 0.00 0.00 0.00 0.00 0.00 0.00 0.00 0.00 0.00 0.00 0.00 0.00 0.00 0.00 0.00 0.00 0.00 0.00 0.00 0.00 0.00 0.00 0.00 0.00 0.00 0.00 0.01 0.02 0.02 0.01 0.02
0.12 0.10 0.10 0.11 0.11 0.07 0.03 0.00 0.00 0.00 0.00 0.00 0.00 0.00 0.00 0.00 0.00 0.00 0.00 0.00 0.00 0.00 0.00 0.00 0.00 0.00 0.00 0.00 0.00 0.00 0.00 0.00 0.00 0.00 0.00 0.00 0.00 0.00 0.00 0.02 0.03 0.02 0.01
0.09 0.04 0.02 0.02 0.02 0.02 0.00 0.00 0.00 0.00 0.00 0.00 0.00 0.00 0.00 0.00 0.00 0.00 0.00 0.00 0.00 0.00 0.00 0.00 0.00 0.00 0.00 0.00 0.00 0.00 0.00 0.00 0.00 0.00 0.00 0.00 0.00 0.00 0.00 0.02 0.05 0.03 0.03
0.16 0.09 0.05 0.04 0.02 0.00 0.00 0.00 0.00 0.00 0.00 0.00 0.00 0.00 0.00 0.00 0.00 0.00 0.00 0.00 0.00 0.00 0.00 0.00 0.00 0.00 0.00 0.00 0.00 0.00 0.00 0.00 0.00 0.00 0.00 0.00 0.00 0.00 0.00 0.01 0.02 0.03 0.03
0.19 0.18 0.12 0.09 0.04 0.02 0.01 0.00 0.00 0.00 0.00 0.00 0.00 0.00 0.00 0.00 0.00 0.00 0.00 0.00 0.00 0.00 0.00 0.00 0.00 0.00 0.00 0.00 0.00 0.00 0.00 0.00 0.00 0.00 0.00 0.00 0.00 0.00 0.00 0.00 0.01 0.01 0.03
0.19 0.16 0.10 0.04 0.04 0.03 0.01 0.00 0.00 0.00 0.00 0.00 0.00 0.00 0.00 0.00 0.00 0.00 0.00 0.00 0.00 0.00 0.00 0.00 0.00 0.00 0.00 0.00 0.00 0.00 0.00 0.00 0.00 0.00 0.00 0.00 0.01 0.01 0.00 0.00 0.00 0.00 0.00
0.18 0.20 0.17 0.10 0.06 0.04 0.03 0.01 0.00 0.00 0.00 0.00 0.00 0.00 0.00 0.00 0.00 0.00 0.00 0.00 0.00 0.00 0.00 0.00 0.00 0.00 0.00 0.00 0.00 0.00 0.00 0.00 0.00 0.00 0.00 0.00 0.00 0.01 0.01 0.00 0.00 0.00 0.00

GFSMA_prec_precacc12_189.txt.gz
Total_Precipitation_Accumulation
0.00 0.00 0.00 0.00 0.00 0.00 0.00 0.00 0.00 0.00 0.00 0.00 0.00 0.00 0.00 0.00 0.00 0.00 0.00 0.00 0.00 0.00 0.00 0.00 0.00 0.00 0.00 0.00 0.00 0.00 0.00 0.01 0.01 0.00 0.00 0.00 0.00 0.00 0.00 0.00 0.00 0.01 0.02
0.00 0.00 0.00 0.00 0.00 0.00 0.00 0.00 0.00 0.00 0.00 0.00 0.00 0.00 0.00 0.00 0.00 0.00 0.00 0.00 0.00 0.00 0.00 0.00 0.00 0.01 0.01 0.01 0.01 0.02 0.01 0.02 0.02 0.01 0.01 0.01 0.00 0.00 0.00 0.00 0.00 0.00 0.00
0.01 0.00 0.00 0.00 0.00 0.00 0.00 0.00 0.00 0.00 0.00 0.00 0.00 0.00 0.00 0.00 0.00 0.00 0.00 0.00 0.00 0.00 0.00 0.00 0.01 0.01 0.01 0.01 0.01 0.02 0.02 0.02 0.02 0.02 0.02 0.02 0.01 0.01 0.00 0.00 0.00 0.00 0.00
0.01 0.00 0.00 0.00 0.00 0.00 0.00 0.00 0.00 0.00 0.00 0.00 0.00 0.00 0.00 0.00 0.00 0.00 0.00 0.00 0.00 0.00 0.00 0.00 0.00 0.01 0.01 0.02 0.03 0.04 0.04 0.04 0.04 0.04 0.03 0.03 0.02 0.01 0.01 0.01 0.00 0.00 0.00
0.00 0.00 0.00 0.00 0.00 0.00 0.00 0.00 0.00 0.00 0.00 0.00 0.00 0.00 0.00 0.00 0.00 0.00 0.00 0.00 0.00 0.00 0.00 0.00 0.00 0.00 0.01 0.02 0.03 0.04 0.05 0.05 0.05 0.04 0.04 0.02 0.02 0.02 0.02 0.01 0.01 0.01 0.01
0.00 0.00 0.00 0.00 0.00 0.00 0.00 0.00 0.00 0.00 0.00 0.00 0.00 0.00 0.00 0.00 0.00 0.00 0.00 0.00 0.00 0.00 0.00 0.00 0.00 0.00 0.00 0.01 0.01 0.03 0.04 0.04 0.04 0.04 0.04 0.04 0.03 0.03 0.03 0.02 0.02 0.02 0.02
0.02 0.00 0.00 0.00 0.00 0.00 0.00 0.00 0.00 0.00 0.00 0.00 0.00 0.00 0.00 0.00 0.00 0.00 0.00 0.00 0.00 0.00 0.00 0.00 0.00 0.00 0.00 0.00 0.00 0.02 0.02 0.02 0.04 0.04 0.05 0.04 0.04 0.04 0.04 0.04 0.04 0.04 0.04
0.04 0.02 0.00 0.00 0.00 0.00 0.00 0.00 0.00 0.00 0.00 0.00 0.00 0.00 0.00 0.00 0.00 0.00 0.00 0.00 0.00 0.00 0.00 0.00 0.00 0.00 0.00 0.00 0.00 0.01 0.01 0.01 0.03 0.04 0.04 0.04 0.04 0.05 0.05 0.06 0.07 0.07 0.07
0.04 0.04 0.03 0.02 0.02 0.00 0.00 0.00 0.00 0.00 0.00 0.00 0.00 0.00 0.00 0.00 0.00 0.00 0.00 0.00 0.00 0.00 0.00 0.00 0.00 0.00 0.00 0.00 0.00 0.00 0.01 0.01 0.01 0.04 0.05 0.04 0.05 0.06 0.07 0.08 0.08 0.08 0.08
0.05 0.05 0.04 0.03 0.03 0.01 0.00 0.00 0.00 0.00 0.00 0.00 0.00 0.00 0.00 0.00 0.00 0.00 0.00 0.00 0.00 0.00 0.00 0.00 0.00 0.00 0.00 0.00 0.00 0.01 0.01 0.01 0.01 0.02 0.04 0.05 0.06 0.07 0.07 0.08 0.07 0.06 0.07
0.06 0.06 0.04 0.02 0.02 0.01 0.00 0.00 0.00 0.00 0.00 0.00 0.00 0.00 0.00 0.00 0.00 0.00 0.00 0.00 0.00 0.00 0.00 0.00 0.00 0.00 0.00 0.00 0.00 0.00 0.00 0.01 0.01 0.02 0.03 0.04 0.06 0.06 0.07 0.06 0.07 0.07 0.06
0.07 0.06 0.05 0.03 0.02 0.01 0.00 0.01 0.00 0.00 0.00 0.00 0.00 0.00 0.00 0.00 0.00 0.00 0.00 0.00 0.00 0.00 0.00 0.00 0.00 0.00 0.00 0.00 0.01 0.00 0.00 0.00 0.00 0.01 0.02 0.03 0.05 0.06 0.06 0.07 0.09 0.10 0.11
0.07 0.07 0.08 0.05 0.04 0.02 0.01 0.01 0.01 0.01 0.01 0.01 0.01 0.00 0.00 0.00 0.00 0.00 0.00 0.00 0.00 0.00 0.01 0.00 0.00 0.00 0.00 0.00 0.00 0.00 0.00 0.00 0.00 0.01 0.01 0.03 0.05 0.05 0.06 0.09 0.15 0.14 0.16
0.10 0.10 0.09 0.07 0.04 0.01 0.01 0.01 0.01 0.01 0.01 0.01 0.01 0.01 0.01 0.00 0.00 0.00 0.00 0.00 0.00 0.00 0.00 0.00 0.00 0.00 0.00 0.00 0.00 0.00 0.00 0.00 0.00 0.00 0.01 0.02 0.04 0.04 0.06 0.17 0.11 0.10 0.08
0.09 0.10 0.10 0.11 0.09 0.07 0.05 0.04 0.03 0.01 0.00 0.01 0.02 0.02 0.01 0.00 0.00 0.00 0.00 0.00 0.00 0.00 0.00 0.00 0.00 0.00 0.00 0.00 0.00 0.00 0.00 0.00 0.00 0.00 0.00 0.01 0.03 0.03 0.05 0.08 0.07 0.05 0.08
0.34 0.30 0.20 0.12 0.07 0.04 0.03 0.02 0.02 0.01 0.00 0.00 0.00 0.00 0.00 0.00 0.00 0.00 0.00 0.00 0.00 0.00 0.00 0.00 0.00 0.00 0.00 0.00 0.00 0.00 0.00 0.00 0.00 0.00 0.00 0.01 0.02 0.02 0.02 0.03 0.04 0.06 0.07
0.48 0.44 0.41 0.35 0.27 0.15 0.07 0.04 0.02 0.02 0.01 0.01 0.00 0.00 0.00 0.00 0.00 0.00 0.00 0.00 0.00 0.00 0.00 0.00 0.00 0.00 0.00 0.00 0.00 0.00 0.00 0.00 0.00 0.00 0.00 0.00 0.01 0.02 0.02 0.01 0.02 0.03 0.05
0.46 0.49 0.49 0.47 0.42 0.34 0.22 0.15 0.11 0.08 0.05 0.04 0.02 0.02 0.01 0.00 0.00 0.00 0.00 0.00 0.00 0.00 0.00 0.00 0.00 0.00 0.00 0.00 0.00 0.00 0.00 0.00 0.00 0.00 0.00 0.00 0.01 0.01 0.02 0.01 0.01 0.01 0.03
0.50 0.44 0.45 0.46 0.44 0.47 0.46 0.39 0.26 0.17 0.13 0.09 0.05 0.03 0.01 0.01 0.01 0.00 0.00 0.00 0.00 0.00 0.00 0.00 0.00 0.00 0.00 0.00 0.00 0.00 0.00 0.00 0.00 0.00 0.00 0.00 0.00 0.01 0.02 0.02 0.01 0.01 0.01
0.46 0.38 0.35 0.30 0.27 0.27 0.23 0.21 0.22 0.19 0.10 0.04 0.03 0.03 0.03 0.02 0.02 0.00 0.00 0.00 0.00 0.00 0.00 0.00 0.00 0.00 0.00 0.00 0.00 0.00 0.00 0.00 0.00 0.00 0.00 0.00 0.00 0.00 0.01 0.02 0.01 0.01 0.01
0.19 0.16 0.16 0.19 0.18 0.14 0.11 0.07 0.04 0.02 0.01 0.00 0.00 0.01 0.00 0.00 0.00 0.00 0.00 0.00 0.00 0.00 0.00 0.00 0.00 0.00 0.00 0.00 0.00 0.00 0.00 0.00 0.00 0.00 0.00 0.00 0.00 0.00 0.00 0.02 0.02 0.01 0.00
0.14 0.11 0.11 0.11 0.09 0.07 0.06 0.04 0.01 0.01 0.00 0.00 0.00 0.00 0.00 0.00 0.00 0.00 0.00 0.00 0.00 0.00 0.00 0.00 0.00 0.00 0.00 0.00 0.00 0.00 0.00 0.00 0.00 0.00 0.00 0.00 0.00 0.00 0.00 0.02 0.04 0.02 0.01
0.29 0.24 0.20 0.20 0.19 0.14 0.07 0.02 0.00 0.00 0.00 0.00 0.00 0.00 0.00 0.00 0.00 0.00 0.00 0.00 0.00 0.00 0.00 0.00 0.00 0.00 0.00 0.00 0.00 0.00 0.00 0.00 0.00 0.00 0.00 0.00 0.00 0.00 0.00 0.00 0.02 0.02 0.01
0.57 0.44 0.38 0.33 0.23 0.18 0.09 0.02 0.01 0.00 0.00 0.00 0.00 0.00 0.00 0.00 0.00 0.00 0.00 0.00 0.00 0.00 0.00 0.00 0.00 0.00 0.00 0.00 0.00 0.00 0.00 0.00 0.00 0.00 0.00 0.00 0.00 0.00 0.00 0.00 0.00 0.01 0.01
0.38 0.38 0.34 0.29 0.24 0.20 0.09 0.04 0.01 0.00 0.00 0.00 0.00 0.00 0.00 0.00 0.00 0.00 0.00 0.00 0.00 0.00 0.00 0.00 0.00 0.00 0.00 0.00 0.00 0.00 0.00 0.00 0.00 0.00 0.00 0.00 0.01 0.01 0.01 0.00 0.00 0.00 0.00
0.34 0.36 0.35 0.25 0.20 0.14 0.08 0.02 0.00 0.00 0.00 0.00 0.00 0.00 0.00 0.00 0.00 0.00 0.00 0.00 0.00 0.00 0.00 0.00 0.00 0.00 0.00 0.00 0.00 0.00 0.00 0.00 0.00 0.00 0.00 0.00 0.00 0.01 0.03 0.01 0.00 0.00 0.00

GFSMA_prec_precacc12_192.txt.gz
Total_Precipitation_Accumulation
0.00 0.00 0.00 0.00 0.00 0.00 0.00 0.00 0.00 0.00 0.00 0.00 0.00 0.00 0.00 0.00 0.00 0.00 0.00 0.00 0.00 0.00 0.00 0.01 0.01 0.01 0.01 0.01 0.00 0.00 0.00 0.00 0.00 0.00 0.00 0.00 0.00 0.00 0.00 0.00 0.00 0.00 0.00
0.00 0.00 0.00 0.00 0.00 0.00 0.00 0.00 0.00 0.00 0.00 0.00 0.00 0.00 0.00 0.00 0.00 0.00 0.00 0.00 0.00 0.00 0.00 0.01 0.01 0.01 0.01 0.01 0.01 0.01 0.01 0.01 0.01 0.01 0.01 0.01 0.00 0.00 0.00 0.00 0.00 0.00 0.00
0.01 0.00 0.00 0.00 0.00 0.00 0.00 0.00 0.00 0.00 0.00 0.00 0.00 0.00 0.00 0.00 0.00 0.00 0.00 0.00 0.00 0.00 0.00 0.01 0.01 0.01 0.02 0.02 0.01 0.02 0.02 0.01 0.01 0.01 0.01 0.01 0.01 0.01 0.00 0.00 0.00 0.00 0.00
0.01 0.00 0.00 0.00 0.00 0.00 0.00 0.00 0.00 0.00 0.00 0.00 0.00 0.00 0.00 0.00 0.00 0.00 0.00 0.00 0.00 0.00 0.00 0.00 0.01 0.01 0.02 0.02 0.03 0.03 0.03 0.03 0.03 0.03 0.02 0.02 0.01 0.01 0.01 0.01 0.00 0.00 0.00
0.02 0.01 0.00 0.00 0.00 0.00 0.00 0.00 0.00 0.00 0.00 0.00 0.00 0.00 0.00 0.00 0.00 0.00 0.00 0.00 0.00 0.00 0.00 0.00 0.00 0.00 0.01 0.01 0.03 0.04 0.04 0.04 0.03 0.03 0.03 0.02 0.02 0.01 0.01 0.01 0.01 0.01 0.01
0.02 0.01 0.01 0.00 0.00 0.00 0.00 0.00 0.00 0.00 0.00 0.00 0.00 0.00 0.00 0.00 0.00 0.00 0.00 0.00 0.00 0.00 0.00 0.00 0.00 0.00 0.00 0.00 0.01 0.03 0.04 0.04 0.04 0.04 0.03 0.03 0.02 0.02 0.02 0.01 0.02 0.02 0.02
0.04 0.02 0.01 0.00 0.00 0.00 0.00 0.00 0.00 0.00 0.00 0.00 0.00 0.00 0.00 0.00 0.00 0.00 0.00 0.00 0.00 0.00 0.00 0.00 0.00 0.00 0.00 0.00 0.00 0.01 0.02 0.03 0.04 0.04 0.04 0.04 0.03 0.03 0.03 0.03 0.03 0.04 0.04
0.05 0.05 0.03 0.01 0.01 0.01 0.00 0.00 0.00 0.00 0.00 0.00 0.00 0.00 0.00 0.00 0.00 0.00 0.00 0.00 0.00 0.00 0.00 0.00 0.00 0.00 0.00 0.00 0.00 0.00 0.01 0.01 0.02 0.03 0.04 0.03 0.03 0.03 0.04 0.04 0.05 0.06 0.06
0.05 0.07 0.07 0.04 0.06 0.04 0.00 0.00 0.00 0.00 0.00 0.00 0.00 0.00 0.00 0.00 0.00 0.00 0.00 0.00 0.00 0.00 0.00 0.00 0.00 0.00 0.00 0.00 0.00 0.00 0.00 0.00 0.01 0.03 0.04 0.03 0.03 0.04 0.04 0.05 0.06 0.07 0.07
0.06 0.07 0.08 0.05 0.06 0.06 0.02 0.01 0.01 0.01 0.00 0.00 0.00 0.00 0.00 0.00 0.00 0.00 0.00 0.00 0.00 0.00 0.00 0.00 0.00 0.00 0.00 0.00 0.00 0.00 0.00 0.00 0.01 0.02 0.03 0.03 0.04 0.04 0.04 0.05 0.06 0.06 0.06
0.07 0.07 0.06 0.04 0.05 0.04 0.03 0.03 0.03 0.01 0.01 0.01 0.01 0.00 0.00 0.00 0.00 0.00 0.00 0.00 0.00 0.00 0.00 0.00 0.00 0.00 0.00 0.00 0.00 0.00 0.00 0.00 0.00 0.01 0.02 0.02 0.03 0.03 0.04 0.05 0.05 0.06 0.07
0.07 0.06 0.07 0.07 0.06 0.04 0.03 0.03 0.03 0.01 0.00 0.01 0.00 0.00 0.00 0.00 0.00 0.00 0.00 0.00 0.00 0.00 0.00 0.00 0.00 0.00 0.00 0.00 0.00 0.00 0.00 0.00 0.00 0.00 0.01 0.02 0.02 0.02 0.03 0.04 0.05 0.06 0.06
0.08 0.09 0.10 0.10 0.11 0.06 0.05 0.04 0.04 0.03 0.02 0.03 0.01 0.00 0.00 0.00 0.00 0.00 0.00 0.00 0.00 0.00 0.01 0.00 0.00 0.00 0.00 0.00 0.00 0.00 0.00 0.00 0.00 0.00 0.00 0.01 0.02 0.02 0.02 0.03 0.05 0.05 0.07
0.11 0.11 0.13 0.11 0.09 0.07 0.05 0.06 0.05 0.03 0.01 0.02 0.02 0.01 0.01 0.00 0.00 0.00 0.00 0.01 0.03 0.02 0.01 0.00 0.00 0.00 0.00 0.00 0.00 0.00 0.00 0.00 0.00 0.00 0.00 0.01 0.01 0.01 0.01 0.02 0.03 0.03 0.04
0.10 0.11 0.13 0.16 0.13 0.12 0.10 0.08 0.07 0.05 0.02 0.01 0.02 0.02 0.02 0.01 0.01 0.01 0.01 0.00 0.00 0.01 0.00 0.00 0.00 0.00 0.00 0.00 0.00 0.00 0.00 0.00 0.00 0.00 0.00 0.01 0.01 0.01 0.01 0.01 0.02 0.02 0.03
0.37 0.33 0.26 0.19 0.14 0.12 0.12 0.11 0.08 0.06 0.07 0.07 0.07 0.06 0.04 0.02 0.01 0.01 0.01 0.00 0.00 0.00 0.00 0.00 0.00 0.00 0.00 0.00 0.00 0.00 0.00 0.00 0.00 0.00 0.00 0.00 0.01 0.01 0.01 0.01 0.01 0.01 0.02
0.57 0.52 0.50 0.45 0.34 0.24 0.20 0.15 0.12 0.07 0.04 0.02 0.01 0.01 0.01 0.00 0.00 0.00 0.00 0.00 0.00 0.00 0.00 0.00 0.00 0.00 0.00 0.00 0.00 0.00 0.00 0.00 0.00 0.00 0.00 0.00 0.01 0.01 0.01 0.00 0.01 0.01 0.01
0.68 0.61 0.60 0.56 0.50 0.45 0.37 0.26 0.20 0.16 0.10 0.07 0.05 0.03 0.02 0.02 0.01 0.01 0.01 0.01 0.01 0.01 0.00 0.01 0.00 0.00 0.00 0.00 0.00 0.00 0.00 0.00 0.00 0.00 0.00 0.00 0.00 0.01 0.01 0.00 0.00 0.00 0.01
1.14 0.90 0.61 0.55 0.52 0.59 0.63 0.56 0.40 0.29 0.23 0.19 0.17 0.15 0.13 0.09 0.06 0.03 0.02 0.02 0.03 0.03 0.01 0.00 0.00 0.00 0.00 0.00 0.00 0.00 0.00 0.00 0.00 0.00 0.00 0.00 0.00 0.00 0.01 0.01 0.00 0.00 0.00
0.82 0.79 0.62 0.47 0.41 0.40 0.37 0.38 0.42 0.43 0.36 0.28 0.22 0.18 0.12 0.08 0.05 0.02 0.02 0.02 0.02 0.01 0.00 0.00 0.00 0.00 0.00 0.00 0.00 0.00 0.00 0.00 0.00 0.00 0.00 0.00 0.00 0.00 0.01 0.01 0.00 0.00 0.00
0.33 0.34 0.38 0.35 0.30 0.21 0.17 0.16 0.19 0.26 0.29 0.31 0.26 0.15 0.06 0.02 0.01 0.00 0.00 0.00 0.00 0.00 0.00 0.00 0.00 0.00 0.00 0.00 0.00 0.00 0.00 0.00 0.00 0.00 0.00 0.00 0.00 0.00 0.00 0.01 0.01 0.00 0.00
0.29 0.21 0.20 0.18 0.15 0.11 0.12 0.13 0.15 0.21 0.29 0.29 0.18 0.08 0.02 0.01 0.01 0.00 0.00 0.00 0.00 0.00 0.00 0.00 0.00 0.00 0.00 0.00 0.00 0.00 0.00 0.00 0.00 0.00 0.00 0.00 0.00 0.00 0.00 0.01 0.02 0.01 0.00
0.46 0.37 0.28 0.29 0.31 0.27 0.25 0.19 0.17 0.18 0.19 0.16 0.09 0.03 0.00 0.00 0.00 0.00 0.00 0.00 0.00 0.00 0.00 0.00 0.00 0.00 0.00 0.00 0.00 0.00 0.00 0.00 0.00 0.00 0.00 0.00 0.00 0.00 0.00 0.00 0.01 0.01 0.01
0.77 0.69 0.58 0.52 0.44 0.39 0.38 0.31 0.25 0.18 0.13 0.07 0.03 0.01 0.01 0.01 0.00 0.00 0.00 0.00 0.00 0.00 0.00 0.00 0.00 0.00 0.00 0.00 0.00 0.00 0.00 0.00 0.00 0.00 0.00 0.00 0.00 0.00 0.00 0.00 0.00 0.00 0.00
0.66 0.70 0.70 0.62 0.60 0.58 0.38 0.24 0.20 0.17 0.09 0.04 0.04 0.03 0.02 0.01 0.01 0.00 0.00 0.00 0.00 0.00 0.00 0.00 0.00 0.00 0.00 0.00 0.00 0.00 0.00 0.00 0.00 0.00 0.00 0.00 0.00 0.01 0.01 0.00 0.00 0.00 0.00
0.56 0.47 0.50 0.49 0.47 0.46 0.35 0.23 0.19 0.11 0.06 0.04 0.02 0.01 0.01 0.00 0.00 0.00 0.00 0.00 0.00 0.00 0.00 0.00 0.00 0.00 0.00 0.00 0.00 0.00 0.00 0.00 0.00 0.00 0.00 0.00 0.00 0.00 0.03 0.02 0.00 0.00 0.00